Time,TemperatureF,DewpointF,PressureIn,WindDirection,WindDirectionDegrees,WindSpeedMPH,WindSpeedGustMPH,Humidity,HourlyPrecipIn,Conditions,Clouds,dailyrainin,SoftwareType,DateUTC
2013-06-07 00:02:00,52.3,46.0,29.93,ENE,61,0.0,3.0,79,0.00,,,0.28,Wunderground v.1.15,2013-06-07 05:02:00,
2013-06-07 00:03:00,52.3,46.0,29.93,ENE,61,2.0,3.0,79,0.00,,,0.00,Wunderground v.1.15,2013-06-07 05:03:00,
2013-06-07 00:06:00,52.3,46.0,29.93,NNE,30,1.0,3.0,79,0.00,,,0.00,Wunderground v.1.15,2013-06-07 05:06:00,
2013-06-07 00:07:00,52.3,46.0,29.93,NNE,32,1.0,3.0,79,0.00,,,0.00,Wunderground v.1.15,2013-06-07 05:07:00,
2013-06-07 00:12:00,52.4,46.1,29.93,NE,39,4.0,4.0,79,0.00,,,0.00,Wunderground v.1.15,2013-06-07 05:12:00,
2013-06-07 00:13:00,52.4,46.4,29.93,NE,42,1.0,4.0,80,0.00,,,0.00,Wunderground v.1.15,2013-06-07 05:13:00,
2013-06-07 00:15:00,52.4,46.1,29.93,NE,56,1.0,4.0,79,0.00,,,0.00,Wunderground v.1.15,2013-06-07 05:15:00,
2013-06-07 00:18:00,52.4,46.1,29.93,NE,52,1.0,4.0,79,0.00,,,0.00,Wunderground v.1.15,2013-06-07 05:18:00,
2013-06-07 00:20:00,52.4,46.1,29.93,ENE,72,2.0,4.0,79,0.00,,,0.00,Wunderground v.1.15,2013-06-07 05:20:00,
2013-06-07 00:23:00,52.4,46.4,29.93,ENE,70,0.0,1.0,80,0.00,,,0.00,Wunderground v.1.15,2013-06-07 05:23:00,
2013-06-07 00:26:00,52.4,46.4,29.93,ENE,67,1.0,1.0,80,0.00,,,0.00,Wunderground v.1.15,2013-06-07 05:26:00,
2013-06-07 00:27:00,52.4,46.4,29.93,ENE,67,0.0,1.0,80,0.00,,,0.00,Wunderground v.1.15,2013-06-07 05:27:00,
2013-06-07 00:28:00,52.4,46.4,29.93,NE,44,2.0,3.0,80,0.00,,,0.00,Wunderground v.1.15,2013-06-07 05:28:00,
2013-06-07 00:30:00,52.4,46.4,29.93,NE,40,0.0,3.0,80,0.00,,,0.00,Wunderground v.1.15,2013-06-07 05:30:00,
2013-06-07 00:33:00,52.4,46.4,29.93,ENE,67,3.0,3.0,80,0.00,,,0.00,Wunderground v.1.15,2013-06-07 05:33:00,
2013-06-07 00:35:00,52.4,46.4,29.93,ENE,57,1.0,3.0,80,0.00,,,0.00,Wunderground v.1.15,2013-06-07 05:35:00,
2013-06-07 00:36:00,52.4,46.4,29.93,NE,56,2.0,3.0,80,0.00,,,0.00,Wunderground v.1.15,2013-06-07 05:36:00,
2013-06-07 00:38:00,52.4,46.4,29.93,NE,53,1.0,3.0,80,0.00,,,0.00,Wunderground v.1.15,2013-06-07 05:38:00,
2013-06-07 00:42:00,52.4,46.4,29.93,ENE,68,0.0,2.0,80,0.00,,,0.00,Wunderground v.1.15,2013-06-07 05:42:00,
2013-06-07 00:45:00,52.4,46.4,29.93,ENE,68,0.0,2.0,80,0.00,,,0.00,Wunderground v.1.15,2013-06-07 05:45:00,
2013-06-07 00:46:00,52.4,46.4,29.93,NE,55,2.0,2.0,80,0.00,,,0.00,Wunderground v.1.15,2013-06-07 05:46:00,
2013-06-07 00:49:00,52.4,46.7,29.93,NE,56,0.0,2.0,81,0.00,,,0.00,Wunderground v.1.15,2013-06-07 05:49:00,
2013-06-07 00:50:00,52.4,46.4,29.94,NE,55,0.0,2.0,80,0.00,,,0.00,Wunderground v.1.15,2013-06-07 05:50:00,
2013-06-07 00:51:00,52.4,46.4,29.94,NE,55,0.0,0.0,80,0.00,,,0.00,Wunderground v.1.15,2013-06-07 05:51:00,
2013-06-07 00:53:00,52.4,46.4,29.93,NE,55,2.0,2.0,80,0.00,,,0.00,Wunderground v.1.15,2013-06-07 05:53:00,
2013-06-07 00:56:00,52.3,46.3,29.94,NE,55,0.0,2.0,80,0.00,,,0.00,Wunderground v.1.15,2013-06-07 05:56:00,
2013-06-07 00:57:00,52.3,46.3,29.93,NE,55,3.0,3.0,80,0.00,,,0.00,Wunderground v.1.15,2013-06-07 05:57:00,
2013-06-07 01:00:00,52.3,46.3,29.93,ENE,57,1.0,3.0,80,0.00,,,0.00,Wunderground v.1.15,2013-06-07 06:00:00,
2013-06-07 01:02:00,52.3,46.6,29.93,NE,35,4.0,4.0,81,0.00,,,0.00,Wunderground v.1.15,2013-06-07 06:02:00,
2013-06-07 01:03:00,52.3,46.6,29.93,NE,41,2.0,4.0,81,0.00,,,0.00,Wunderground v.1.15,2013-06-07 06:03:00,
2013-06-07 01:06:00,52.3,46.3,29.93,NNE,26,0.0,4.0,80,0.00,,,0.00,Wunderground v.1.15,2013-06-07 06:06:00,
2013-06-07 01:07:00,52.3,46.3,29.93,NNE,25,0.0,4.0,80,0.00,,,0.00,Wunderground v.1.15,2013-06-07 06:07:00,
2013-06-07 01:11:00,52.2,46.2,29.93,NNE,31,0.0,4.0,80,0.00,,,0.00,Wunderground v.1.15,2013-06-07 06:11:00,
2013-06-07 01:13:00,52.3,46.3,29.93,NE,53,0.0,3.0,80,0.00,,,0.00,Wunderground v.1.15,2013-06-07 06:13:00,
2013-06-07 01:15:00,52.3,46.3,29.93,NE,51,2.0,3.0,80,0.00,,,0.00,Wunderground v.1.15,2013-06-07 06:15:00,
2013-06-07 01:16:00,52.3,46.3,29.93,ENE,57,0.0,3.0,80,0.00,,,0.00,Wunderground v.1.15,2013-06-07 06:16:00,
2013-06-07 01:17:00,52.3,46.6,29.93,NE,55,2.0,3.0,81,0.00,,,0.00,Wunderground v.1.15,2013-06-07 06:17:00,
2013-06-07 01:20:00,52.3,46.3,29.93,NE,55,1.0,3.0,80,0.00,,,0.00,Wunderground v.1.15,2013-06-07 06:20:00,
2013-06-07 01:21:00,52.3,46.3,29.93,NE,55,3.0,3.0,80,0.00,,,0.00,Wunderground v.1.15,2013-06-07 06:21:00,
2013-06-07 01:22:00,52.3,46.3,29.93,NE,49,2.0,3.0,80,0.00,,,0.00,Wunderground v.1.15,2013-06-07 06:22:00,
2013-06-07 01:25:00,52.3,46.6,29.93,NE,53,2.0,3.0,81,0.00,,,0.00,Wunderground v.1.15,2013-06-07 06:25:00,
2013-06-07 01:27:00,52.2,46.2,29.93,NE,38,2.0,4.0,80,0.00,,,0.00,Wunderground v.1.15,2013-06-07 06:27:00,
2013-06-07 01:30:00,52.2,46.5,29.93,NE,38,0.0,4.0,81,0.00,,,0.00,Wunderground v.1.15,2013-06-07 06:30:00,
2013-06-07 01:31:00,52.2,46.5,29.93,NE,38,0.0,1.0,81,0.00,,,0.00,Wunderground v.1.15,2013-06-07 06:31:00,
2013-06-07 01:32:00,52.2,46.5,29.93,NE,38,0.0,1.0,81,0.00,,,0.00,Wunderground v.1.15,2013-06-07 06:32:00,
2013-06-07 01:35:00,52.2,46.5,29.93,NE,38,2.0,2.0,81,0.00,,,0.00,Wunderground v.1.15,2013-06-07 06:35:00,
2013-06-07 01:38:00,52.2,46.5,29.93,NE,41,2.0,2.0,81,0.00,,,0.00,Wunderground v.1.15,2013-06-07 06:38:00,
2013-06-07 01:40:00,52.2,46.5,29.93,NE,38,2.0,3.0,81,0.00,,,0.00,Wunderground v.1.15,2013-06-07 06:40:00,
2013-06-07 01:41:00,52.1,46.4,29.93,NE,38,0.0,1.0,81,0.00,,,0.00,Wunderground v.1.15,2013-06-07 06:41:00,
2013-06-07 01:42:00,52.1,46.4,29.93,NE,38,1.0,1.0,81,0.00,,,0.00,Wunderground v.1.15,2013-06-07 06:42:00,
2013-06-07 01:46:00,52.1,46.4,29.93,NNE,30,1.0,5.0,81,0.00,,,0.00,Wunderground v.1.15,2013-06-07 06:46:00,
2013-06-07 01:47:00,52.1,46.4,29.93,NE,39,1.0,5.0,81,0.00,,,0.00,Wunderground v.1.15,2013-06-07 06:47:00,
2013-06-07 01:48:00,52.1,46.4,29.93,NE,36,2.0,5.0,81,0.00,,,0.00,Wunderground v.1.15,2013-06-07 06:48:00,
2013-06-07 01:51:00,52.1,46.4,29.93,NE,37,3.0,3.0,81,0.00,,,0.00,Wunderground v.1.15,2013-06-07 06:51:00,
2013-06-07 01:52:00,52.1,46.4,29.93,NE,35,3.0,3.0,81,0.00,,,0.00,Wunderground v.1.15,2013-06-07 06:52:00,
2013-06-07 01:55:00,52.0,46.3,29.93,NE,44,5.0,5.0,81,0.00,,,0.00,Wunderground v.1.15,2013-06-07 06:55:00,
2013-06-07 01:57:00,52.0,46.3,29.93,ENE,58,0.0,5.0,81,0.00,,,0.00,Wunderground v.1.15,2013-06-07 06:57:00,
2013-06-07 01:58:00,52.0,46.3,29.93,ENE,57,0.0,5.0,81,0.00,,,0.00,Wunderground v.1.15,2013-06-07 06:58:00,
2013-06-07 02:00:00,52.0,46.7,29.93,NE,35,3.0,5.0,82,0.00,,,0.00,Wunderground v.1.15,2013-06-07 07:00:00,
2013-06-07 02:03:00,52.0,46.7,29.93,ENE,57,1.0,2.0,82,0.00,,,0.00,Wunderground v.1.15,2013-06-07 07:03:00,
2013-06-07 02:04:00,51.9,46.6,29.93,NE,45,3.0,3.0,82,0.00,,,0.00,Wunderground v.1.15,2013-06-07 07:04:00,
2013-06-07 02:05:00,51.9,46.6,29.93,NNE,29,3.0,5.0,82,0.00,,,0.00,Wunderground v.1.15,2013-06-07 07:05:00,
2013-06-07 02:07:00,51.9,46.6,29.93,ENE,65,3.0,5.0,82,0.00,,,0.00,Wunderground v.1.15,2013-06-07 07:07:00,
2013-06-07 02:08:00,51.9,46.6,29.93,ENE,65,1.0,5.0,82,0.00,,,0.00,Wunderground v.1.15,2013-06-07 07:08:00,
2013-06-07 02:09:00,51.9,46.6,29.93,ENE,65,0.0,5.0,82,0.00,,,0.00,Wunderground v.1.15,2013-06-07 07:09:00,
2013-06-07 02:10:00,51.9,46.6,29.93,NNE,19,2.0,5.0,82,0.00,,,0.00,Wunderground v.1.15,2013-06-07 07:10:00,
2013-06-07 02:14:00,51.8,46.5,29.93,NE,41,1.0,4.0,82,0.00,,,0.00,Wunderground v.1.15,2013-06-07 07:14:00,
2013-06-07 02:16:00,51.8,46.5,29.93,NE,36,0.0,4.0,82,0.00,,,0.00,Wunderground v.1.15,2013-06-07 07:16:00,
2013-06-07 02:18:00,51.8,46.5,29.93,NE,36,1.0,4.0,82,0.00,,,0.00,Wunderground v.1.15,2013-06-07 07:18:00,
2013-06-07 02:19:00,51.8,46.5,29.93,NE,44,3.0,4.0,82,0.00,,,0.00,Wunderground v.1.15,2013-06-07 07:19:00,
2013-06-07 02:21:00,51.8,46.5,29.93,ENE,63,1.0,4.0,82,0.00,,,0.00,Wunderground v.1.15,2013-06-07 07:21:00,
2013-06-07 02:22:00,51.8,46.5,29.93,NE,36,4.0,4.0,82,0.00,,,0.00,Wunderground v.1.15,2013-06-07 07:22:00,
2013-06-07 02:25:00,51.8,46.8,29.93,NE,46,3.0,5.0,83,0.00,,,0.00,Wunderground v.1.15,2013-06-07 07:25:00,
2013-06-07 02:26:00,51.8,46.8,29.93,NNE,33,2.0,5.0,83,0.00,,,0.00,Wunderground v.1.15,2013-06-07 07:26:00,
2013-06-07 02:27:00,51.8,46.5,29.93,NNE,32,1.0,5.0,82,0.00,,,0.00,Wunderground v.1.15,2013-06-07 07:27:00,
2013-06-07 02:29:00,51.8,46.8,29.93,NNE,22,0.0,5.0,83,0.00,,,0.00,Wunderground v.1.15,2013-06-07 07:29:00,
2013-06-07 02:30:00,51.8,46.8,29.93,NE,55,3.0,5.0,83,0.00,,,0.00,Wunderground v.1.15,2013-06-07 07:30:00,
2013-06-07 02:32:00,51.8,46.5,29.93,NNE,31,3.0,4.0,82,0.00,,,0.00,Wunderground v.1.15,2013-06-07 07:32:00,
2013-06-07 02:33:00,51.8,46.5,29.93,NNE,33,4.0,4.0,82,0.00,,,0.00,Wunderground v.1.15,2013-06-07 07:33:00,
2013-06-07 02:35:00,51.8,46.5,29.93,NE,37,2.0,4.0,82,0.00,,,0.00,Wunderground v.1.15,2013-06-07 07:35:00,
2013-06-07 02:37:00,51.8,46.5,29.93,NNE,33,3.0,4.0,82,0.00,,,0.00,Wunderground v.1.15,2013-06-07 07:37:00,
2013-06-07 02:38:00,51.8,46.5,29.93,NE,35,2.0,4.0,82,0.00,,,0.00,Wunderground v.1.15,2013-06-07 07:38:00,
2013-06-07 02:39:00,51.8,46.5,29.93,NE,35,0.0,4.0,82,0.00,,,0.00,Wunderground v.1.15,2013-06-07 07:39:00,
2013-06-07 02:41:00,51.8,46.5,29.93,NE,40,1.0,4.0,82,0.00,,,0.00,Wunderground v.1.15,2013-06-07 07:41:00,
2013-06-07 02:42:00,51.8,46.5,29.93,ENE,57,1.0,4.0,82,0.00,,,0.00,Wunderground v.1.15,2013-06-07 07:42:00,
2013-06-07 02:46:00,51.8,46.5,29.93,NE,47,3.0,4.0,82,0.00,,,0.00,Wunderground v.1.15,2013-06-07 07:46:00,
2013-06-07 02:48:00,51.8,46.5,29.93,NE,40,1.0,5.0,82,0.00,,,0.00,Wunderground v.1.15,2013-06-07 07:48:00,
2013-06-07 02:51:00,51.8,46.5,29.93,NNE,29,2.0,5.0,82,0.00,,,0.00,Wunderground v.1.15,2013-06-07 07:51:00,
2013-06-07 02:52:00,51.7,46.4,29.93,NNE,32,1.0,2.0,82,0.00,,,0.00,Wunderground v.1.15,2013-06-07 07:52:00,
2013-06-07 02:54:00,51.7,46.7,29.93,NE,46,2.0,4.0,83,0.00,,,0.00,Wunderground v.1.15,2013-06-07 07:54:00,
2013-06-07 02:56:00,51.7,46.7,29.93,NE,48,0.0,4.0,83,0.00,,,0.00,Wunderground v.1.15,2013-06-07 07:56:00,
2013-06-07 02:58:00,51.7,46.4,29.93,ENE,65,2.0,4.0,82,0.00,,,0.00,Wunderground v.1.15,2013-06-07 07:58:00,
2013-06-07 03:01:00,51.7,46.7,29.93,ENE,69,1.0,4.0,83,0.00,,,0.00,Wunderground v.1.15,2013-06-07 08:01:00,
2013-06-07 03:02:00,51.7,46.7,29.93,ENE,77,1.0,1.0,83,0.00,,,0.00,Wunderground v.1.15,2013-06-07 08:02:00,
2013-06-07 03:03:00,51.7,46.7,29.93,ENE,73,1.0,1.0,83,0.00,,,0.00,Wunderground v.1.15,2013-06-07 08:03:00,
2013-06-07 03:04:00,51.7,46.7,29.93,NE,54,4.0,4.0,83,0.00,,,0.00,Wunderground v.1.15,2013-06-07 08:04:00,
2013-06-07 03:07:00,51.7,46.7,29.93,ENE,65,0.0,4.0,83,0.00,,,0.00,Wunderground v.1.15,2013-06-07 08:07:00,
2013-06-07 03:08:00,51.7,46.7,29.93,NE,49,3.0,4.0,83,0.00,,,0.00,Wunderground v.1.15,2013-06-07 08:08:00,
2013-06-07 03:10:00,51.7,46.7,29.93,NE,53,0.0,4.0,83,0.00,,,0.00,Wunderground v.1.15,2013-06-07 08:10:00,
2013-06-07 03:13:00,51.7,46.7,29.93,NE,53,3.0,3.0,83,0.00,,,0.00,Wunderground v.1.15,2013-06-07 08:13:00,
2013-06-07 03:14:00,51.7,46.7,29.93,NE,53,0.0,3.0,83,0.00,,,0.00,Wunderground v.1.15,2013-06-07 08:14:00,
2013-06-07 03:15:00,51.7,46.7,29.93,NE,53,0.0,3.0,83,0.00,,,0.00,Wunderground v.1.15,2013-06-07 08:15:00,
2013-06-07 03:18:00,51.7,46.7,29.93,NE,55,4.0,4.0,83,0.00,,,0.00,Wunderground v.1.15,2013-06-07 08:18:00,
2013-06-07 03:20:00,51.7,46.7,29.93,ENE,57,1.0,4.0,83,0.00,,,0.00,Wunderground v.1.15,2013-06-07 08:20:00,
2013-06-07 03:21:00,51.7,46.7,29.93,NE,38,4.0,4.0,83,0.00,,,0.00,Wunderground v.1.15,2013-06-07 08:21:00,
2013-06-07 03:24:00,51.7,46.7,29.93,NE,50,0.0,3.0,83,0.00,,,0.00,Wunderground v.1.15,2013-06-07 08:24:00,
2013-06-07 03:25:00,51.7,46.7,29.93,NE,55,3.0,4.0,83,0.00,,,0.00,Wunderground v.1.15,2013-06-07 08:25:00,
2013-06-07 03:26:00,51.7,46.7,29.93,ENE,57,3.0,4.0,83,0.00,,,0.00,Wunderground v.1.15,2013-06-07 08:26:00,
2013-06-07 03:29:00,51.7,46.7,29.93,NE,52,2.0,5.0,83,0.00,,,0.00,Wunderground v.1.15,2013-06-07 08:29:00,
2013-06-07 03:31:00,51.7,46.7,29.93,NE,53,2.0,5.0,83,0.00,,,0.00,Wunderground v.1.15,2013-06-07 08:31:00,
2013-06-07 03:32:00,51.7,46.7,29.93,NNE,23,3.0,3.0,83,0.00,,,0.00,Wunderground v.1.15,2013-06-07 08:32:00,
2013-06-07 03:34:00,51.7,46.7,29.93,NE,42,1.0,3.0,83,0.00,,,0.00,Wunderground v.1.15,2013-06-07 08:34:00,
2013-06-07 03:36:00,51.7,47.0,29.93,ENE,68,1.0,4.0,84,0.00,,,0.00,Wunderground v.1.15,2013-06-07 08:36:00,
2013-06-07 03:38:00,51.7,46.7,29.93,ENE,59,4.0,4.0,83,0.00,,,0.00,Wunderground v.1.15,2013-06-07 08:38:00,
2013-06-07 03:40:00,51.6,46.9,29.93,NE,40,3.0,5.0,84,0.00,,,0.00,Wunderground v.1.15,2013-06-07 08:40:00,
2013-06-07 03:42:00,51.7,47.0,29.93,NE,55,3.0,4.0,84,0.00,,,0.00,Wunderground v.1.15,2013-06-07 08:42:00,
2013-06-07 03:44:00,51.6,46.6,29.93,NE,46,0.0,5.0,83,0.00,,,0.00,Wunderground v.1.15,2013-06-07 08:44:00,
2013-06-07 03:45:00,51.6,46.6,29.93,NE,46,3.0,5.0,83,0.00,,,0.00,Wunderground v.1.15,2013-06-07 08:45:00,
2013-06-07 03:46:00,51.6,46.9,29.93,NE,50,0.0,5.0,84,0.00,,,0.00,Wunderground v.1.15,2013-06-07 08:46:00,
2013-06-07 03:47:00,51.6,46.9,29.93,NE,51,4.0,5.0,84,0.00,,,0.00,Wunderground v.1.15,2013-06-07 08:47:00,
2013-06-07 03:50:00,51.6,46.9,29.93,ENE,70,0.0,5.0,84,0.00,,,0.00,Wunderground v.1.15,2013-06-07 08:50:00,
2013-06-07 03:51:00,51.7,47.0,29.93,NE,54,3.0,3.0,84,0.00,,,0.00,Wunderground v.1.15,2013-06-07 08:51:00,
2013-06-07 03:52:00,51.7,47.0,29.93,ENE,65,2.0,3.0,84,0.00,,,0.00,Wunderground v.1.15,2013-06-07 08:52:00,
2013-06-07 03:53:00,51.7,47.0,29.93,ENE,63,1.0,3.0,84,0.00,,,0.00,Wunderground v.1.15,2013-06-07 08:53:00,
2013-06-07 03:56:00,51.7,47.0,29.93,ENE,59,0.0,3.0,84,0.00,,,0.00,Wunderground v.1.15,2013-06-07 08:56:00,
2013-06-07 03:58:00,51.7,47.0,29.93,ENE,58,0.0,3.0,84,0.00,,,0.00,Wunderground v.1.15,2013-06-07 08:58:00,
2013-06-07 03:59:00,51.8,47.1,29.93,ENE,63,0.0,3.0,84,0.00,,,0.00,Wunderground v.1.15,2013-06-07 08:59:00,
2013-06-07 04:00:00,51.7,47.3,29.93,NE,45,1.0,7.0,85,0.00,,,-99.99,WeatherLink 5.9.3,2013-06-07 09:00:00,
2013-06-07 04:01:00,51.8,47.4,29.93,ENE,60,2.0,3.0,85,0.00,,,0.00,Wunderground v.1.15,2013-06-07 09:01:00,
2013-06-07 04:02:00,51.8,47.4,29.93,East,95,0.0,1.0,85,0.00,,,0.00,Wunderground v.1.15,2013-06-07 09:02:00,
2013-06-07 04:03:00,51.8,47.4,29.93,NE,53,2.0,4.0,85,0.00,,,0.00,Wunderground v.1.15,2013-06-07 09:03:00,
2013-06-07 04:04:00,51.9,47.5,29.93,ENE,61,0.0,4.0,85,0.00,,,0.00,Wunderground v.1.15,2013-06-07 09:04:00,
2013-06-07 04:08:00,51.9,47.5,29.93,ENE,62,0.0,4.0,85,0.00,,,0.00,Wunderground v.1.15,2013-06-07 09:08:00,
2013-06-07 04:09:00,52.0,47.9,29.93,ESE,105,0.0,4.0,86,0.00,,,0.00,Wunderground v.1.15,2013-06-07 09:09:00,
2013-06-07 04:14:00,52.1,48.0,29.93,ENE,78,0.0,6.0,86,0.00,,,0.00,Wunderground v.1.15,2013-06-07 09:14:00,
2013-06-07 04:15:00,52.1,48.0,29.93,ENE,67,0.0,6.0,86,0.00,,,0.00,Wunderground v.1.15,2013-06-07 09:15:00,
2013-06-07 04:16:00,52.2,48.1,29.93,NE,54,3.0,6.0,86,0.00,,,0.00,Wunderground v.1.15,2013-06-07 09:16:00,
2013-06-07 04:18:00,52.2,48.1,29.93,East,84,0.0,6.0,86,0.00,,,0.00,Wunderground v.1.15,2013-06-07 09:18:00,
2013-06-07 04:22:00,52.3,48.2,29.93,ENE,74,1.0,2.0,86,0.00,,,0.00,Wunderground v.1.15,2013-06-07 09:22:00,
2013-06-07 04:23:00,52.3,48.2,29.93,ENE,68,0.0,2.0,86,0.00,,,0.00,Wunderground v.1.15,2013-06-07 09:23:00,
2013-06-07 04:24:00,52.3,48.2,29.93,ENE,75,0.0,2.0,86,0.00,,,0.00,Wunderground v.1.15,2013-06-07 09:24:00,
2013-06-07 04:28:00,52.4,48.3,29.93,ENE,72,0.0,8.0,86,0.00,,,0.00,Wunderground v.1.15,2013-06-07 09:28:00,
2013-06-07 04:29:00,52.4,48.3,29.93,East,88,3.0,8.0,86,0.00,,,0.00,Wunderground v.1.15,2013-06-07 09:29:00,
2013-06-07 04:30:00,52.4,48.3,29.93,ENE,78,0.0,8.0,86,0.00,,,0.00,Wunderground v.1.15,2013-06-07 09:30:00,
2013-06-07 04:31:00,52.4,48.3,29.93,ENE,76,0.0,8.0,86,0.00,,,0.00,Wunderground v.1.15,2013-06-07 09:31:00,
2013-06-07 04:34:00,52.4,48.3,29.93,NE,54,1.0,4.0,86,0.00,,,0.00,Wunderground v.1.15,2013-06-07 09:34:00,
2013-06-07 04:36:00,52.4,48.3,29.93,East,90,3.0,4.0,86,0.00,,,0.00,Wunderground v.1.15,2013-06-07 09:36:00,
2013-06-07 04:39:00,52.4,48.3,29.93,NE,55,1.0,4.0,86,0.00,,,0.00,Wunderground v.1.15,2013-06-07 09:39:00,
2013-06-07 04:43:00,52.5,48.4,29.93,ENE,58,1.0,2.0,86,0.00,,,0.00,Wunderground v.1.15,2013-06-07 09:43:00,
2013-06-07 04:44:00,52.4,48.3,29.93,East,93,0.0,2.0,86,0.00,,,0.00,Wunderground v.1.15,2013-06-07 09:44:00,
2013-06-07 04:46:00,52.4,48.3,29.93,NE,50,5.0,5.0,86,0.00,,,0.00,Wunderground v.1.15,2013-06-07 09:46:00,
2013-06-07 04:48:00,52.4,48.3,29.93,ENE,75,0.0,5.0,86,0.00,,,0.00,Wunderground v.1.15,2013-06-07 09:48:00,
2013-06-07 04:50:00,52.4,48.3,29.93,ENE,65,2.0,5.0,86,0.00,,,0.00,Wunderground v.1.15,2013-06-07 09:50:00,
2013-06-07 04:51:00,52.4,48.3,29.93,NNE,30,2.0,5.0,86,0.00,,,0.00,Wunderground v.1.15,2013-06-07 09:51:00,
2013-06-07 04:52:00,52.4,48.3,29.93,ENE,62,0.0,1.0,86,0.00,,,0.00,Wunderground v.1.15,2013-06-07 09:52:00,
2013-06-07 04:53:00,52.4,48.3,29.93,ENE,65,0.0,1.0,86,0.00,,,0.00,Wunderground v.1.15,2013-06-07 09:53:00,
2013-06-07 04:54:00,52.4,48.3,29.93,NE,54,0.0,2.0,86,0.00,,,0.00,Wunderground v.1.15,2013-06-07 09:54:00,
2013-06-07 04:56:00,52.4,48.3,29.93,ENE,60,0.0,2.0,86,0.00,,,0.00,Wunderground v.1.15,2013-06-07 09:56:00,
2013-06-07 04:59:00,52.4,48.3,29.93,ENE,66,0.0,4.0,86,0.00,,,0.00,Wunderground v.1.15,2013-06-07 09:59:00,
2013-06-07 05:02:00,52.4,48.6,29.94,ENE,61,0.0,5.0,87,0.00,,,0.00,Wunderground v.1.15,2013-06-07 10:02:00,
2013-06-07 05:03:00,52.4,48.6,29.93,ENE,63,1.0,5.0,87,0.00,,,0.00,Wunderground v.1.15,2013-06-07 10:03:00,
2013-06-07 05:04:00,52.4,48.3,29.93,ENE,64,3.0,5.0,86,0.00,,,0.00,Wunderground v.1.15,2013-06-07 10:04:00,
2013-06-07 05:06:00,52.3,48.5,29.94,ENE,67,1.0,9.0,87,0.00,,,-99.99,WeatherLink 5.9.3,2013-06-07 10:06:00,
2013-06-07 05:07:00,52.4,48.3,29.94,ENE,71,0.0,5.0,86,0.00,,,0.00,Wunderground v.1.15,2013-06-07 10:07:00,
2013-06-07 05:08:00,52.4,48.3,29.93,ESE,102,0.0,5.0,86,0.00,,,0.00,Wunderground v.1.15,2013-06-07 10:08:00,
2013-06-07 05:09:00,52.4,48.3,29.94,East,82,0.0,5.0,86,0.00,,,0.00,Wunderground v.1.15,2013-06-07 10:09:00,
2013-06-07 05:12:00,52.4,48.3,29.94,East,79,0.0,1.0,86,0.00,,,0.00,Wunderground v.1.15,2013-06-07 10:12:00,
2013-06-07 05:14:00,52.4,48.3,29.94,ENE,61,0.0,2.0,86,0.00,,,0.00,Wunderground v.1.15,2013-06-07 10:14:00,
2013-06-07 05:15:00,52.4,48.3,29.94,East,98,0.0,2.0,86,0.00,,,0.00,Wunderground v.1.15,2013-06-07 10:15:00,
2013-06-07 05:17:00,52.4,48.3,29.94,ENE,67,0.0,2.0,86,0.00,,,0.00,Wunderground v.1.15,2013-06-07 10:17:00,
2013-06-07 05:18:00,52.4,48.3,29.94,ENE,69,0.0,2.0,86,0.00,,,0.00,Wunderground v.1.15,2013-06-07 10:18:00,
2013-06-07 05:21:00,52.4,48.3,29.94,ENE,64,0.0,4.0,86,0.00,,,0.00,Wunderground v.1.15,2013-06-07 10:21:00,
2013-06-07 05:22:00,52.4,48.3,29.94,ENE,57,4.0,4.0,86,0.00,,,0.00,Wunderground v.1.15,2013-06-07 10:22:00,
2013-06-07 05:24:00,52.5,48.4,29.94,ENE,62,2.0,4.0,86,0.00,,,0.00,Wunderground v.1.15,2013-06-07 10:24:00,
2013-06-07 05:26:00,52.5,48.4,29.93,ENE,63,0.0,4.0,86,0.00,,,0.00,Wunderground v.1.15,2013-06-07 10:26:00,
2013-06-07 05:27:00,52.4,48.3,29.94,ENE,64,0.0,4.0,86,0.00,,,0.00,Wunderground v.1.15,2013-06-07 10:27:00,
2013-06-07 05:29:00,52.5,48.4,29.94,NE,34,1.0,4.0,86,0.00,,,0.00,Wunderground v.1.15,2013-06-07 10:29:00,
2013-06-07 05:31:00,52.5,48.4,29.94,NE,41,0.0,1.0,86,0.00,,,0.00,Wunderground v.1.15,2013-06-07 10:31:00,
2013-06-07 05:32:00,52.5,48.4,29.94,NE,41,0.0,1.0,86,0.00,,,0.00,Wunderground v.1.15,2013-06-07 10:32:00,
2013-06-07 05:34:00,52.5,48.4,29.94,ENE,63,2.0,2.0,86,0.00,,,0.00,Wunderground v.1.15,2013-06-07 10:34:00,
2013-06-07 05:36:00,52.5,48.4,29.94,ENE,65,0.0,2.0,86,0.00,,,0.00,Wunderground v.1.15,2013-06-07 10:36:00,
2013-06-07 05:38:00,52.5,48.4,29.94,ENE,69,0.0,4.0,86,0.00,,,0.00,Wunderground v.1.15,2013-06-07 10:38:00,
2013-06-07 05:41:00,52.6,48.5,29.94,East,81,1.0,1.0,86,0.00,,,0.00,Wunderground v.1.15,2013-06-07 10:41:00,
2013-06-07 05:42:00,52.6,48.5,29.94,NE,49,0.0,1.0,86,0.00,,,0.00,Wunderground v.1.15,2013-06-07 10:42:00,
2013-06-07 05:43:00,52.6,48.5,29.94,NE,51,1.0,1.0,86,0.00,,,0.00,Wunderground v.1.15,2013-06-07 10:43:00,
2013-06-07 05:46:00,52.6,48.5,29.94,ENE,59,0.0,1.0,86,0.00,,,0.00,Wunderground v.1.15,2013-06-07 10:46:00,
2013-06-07 05:47:00,52.6,48.5,29.94,ENE,59,1.0,1.0,86,0.00,,,0.00,Wunderground v.1.15,2013-06-07 10:47:00,
2013-06-07 05:48:00,52.6,48.5,29.94,ENE,68,1.0,1.0,86,0.00,,,0.00,Wunderground v.1.15,2013-06-07 10:48:00,
2013-06-07 05:49:00,52.6,48.5,29.94,ENE,77,1.0,1.0,86,0.00,,,0.00,Wunderground v.1.15,2013-06-07 10:49:00,
2013-06-07 05:50:00,52.6,48.5,29.94,NE,56,0.0,1.0,86,0.00,,,0.00,Wunderground v.1.15,2013-06-07 10:50:00,
2013-06-07 05:53:00,52.6,48.5,29.94,NE,36,1.0,5.0,86,0.00,,,0.00,Wunderground v.1.15,2013-06-07 10:53:00,
2013-06-07 05:54:00,52.6,48.5,29.94,ENE,60,2.0,5.0,86,0.00,,,0.00,Wunderground v.1.15,2013-06-07 10:54:00,
2013-06-07 05:55:00,52.6,48.5,29.94,ENE,59,0.0,5.0,86,0.00,,,0.00,Wunderground v.1.15,2013-06-07 10:55:00,
2013-06-07 05:58:00,52.7,48.6,29.95,ENE,76,0.0,5.0,86,0.00,,,0.00,Wunderground v.1.15,2013-06-07 10:58:00,
2013-06-07 06:00:00,52.7,48.3,29.95,ENE,60,0.0,5.0,85,0.00,,,0.00,Wunderground v.1.15,2013-06-07 11:00:00,
2013-06-07 06:01:00,52.7,48.3,29.95,ENE,60,2.0,5.0,85,0.00,,,0.00,Wunderground v.1.15,2013-06-07 11:01:00,
2013-06-07 06:02:00,52.7,48.3,29.95,East,88,0.0,1.0,85,0.00,,,0.00,Wunderground v.1.15,2013-06-07 11:02:00,
2013-06-07 06:04:00,52.7,48.3,29.95,East,86,0.0,3.0,85,0.00,,,0.00,Wunderground v.1.15,2013-06-07 11:04:00,
2013-06-07 06:06:00,52.8,48.4,29.95,ENE,76,0.0,3.0,85,0.00,,,0.00,Wunderground v.1.15,2013-06-07 11:06:00,
2013-06-07 06:07:00,52.8,48.4,29.95,ENE,76,0.0,3.0,85,0.00,,,0.00,Wunderground v.1.15,2013-06-07 11:07:00,
2013-06-07 06:08:00,52.8,48.4,29.95,ENE,78,0.0,3.0,85,0.00,,,0.00,Wunderground v.1.15,2013-06-07 11:08:00,
2013-06-07 06:10:00,52.8,48.4,29.95,ENE,77,0.0,3.0,85,0.00,,,0.00,Wunderground v.1.15,2013-06-07 11:10:00,
2013-06-07 06:11:00,52.9,48.5,29.95,ENE,76,3.0,3.0,85,0.00,,,0.00,Wunderground v.1.15,2013-06-07 11:11:00,
2013-06-07 06:12:00,52.9,48.5,29.95,ENE,76,0.0,3.0,85,0.00,,,0.00,Wunderground v.1.15,2013-06-07 11:12:00,
2013-06-07 06:16:00,52.9,48.5,29.95,ENE,69,0.0,3.0,85,0.00,,,0.00,Wunderground v.1.15,2013-06-07 11:16:00,
2013-06-07 06:17:00,52.9,48.5,29.95,ENE,68,0.0,3.0,85,0.00,,,0.00,Wunderground v.1.15,2013-06-07 11:17:00,
2013-06-07 06:18:00,52.9,48.5,29.95,ENE,69,0.0,3.0,85,0.00,,,0.00,Wunderground v.1.15,2013-06-07 11:18:00,
2013-06-07 06:21:00,52.9,48.5,29.95,East,95,1.0,3.0,85,0.00,,,0.00,Wunderground v.1.15,2013-06-07 11:21:00,
2013-06-07 06:22:00,52.9,48.5,29.95,ENE,71,3.0,3.0,85,0.00,,,0.00,Wunderground v.1.15,2013-06-07 11:22:00,
2013-06-07 06:23:00,53.0,48.6,29.95,ENE,67,4.0,4.0,85,0.00,,,0.00,Wunderground v.1.15,2013-06-07 11:23:00,
2013-06-07 06:24:00,53.0,48.6,29.95,ENE,69,1.0,4.0,85,0.00,,,0.00,Wunderground v.1.15,2013-06-07 11:24:00,
2013-06-07 06:26:00,53.0,48.6,29.95,ENE,71,0.0,4.0,85,0.00,,,0.00,Wunderground v.1.15,2013-06-07 11:26:00,
2013-06-07 06:27:00,53.0,48.6,29.95,ENE,65,0.0,4.0,85,0.00,,,0.00,Wunderground v.1.15,2013-06-07 11:27:00,
2013-06-07 06:30:00,53.0,48.9,29.95,ENE,66,0.0,4.0,86,0.00,,,0.00,Wunderground v.1.15,2013-06-07 11:30:00,
2013-06-07 06:32:00,53.0,48.9,29.95,ENE,61,0.0,1.0,86,0.00,,,0.00,Wunderground v.1.15,2013-06-07 11:32:00,
2013-06-07 06:34:00,53.0,48.9,29.95,East,92,0.0,5.0,86,0.00,,,0.00,Wunderground v.1.15,2013-06-07 11:34:00,
2013-06-07 06:37:00,53.0,48.6,29.95,ENE,70,1.0,5.0,85,0.00,,,0.00,Wunderground v.1.15,2013-06-07 11:37:00,
2013-06-07 06:38:00,53.0,48.6,29.95,ENE,57,0.0,5.0,85,0.00,,,0.00,Wunderground v.1.15,2013-06-07 11:38:00,
2013-06-07 06:39:00,53.0,48.6,29.95,ENE,57,0.0,5.0,85,0.00,,,0.00,Wunderground v.1.15,2013-06-07 11:39:00,
2013-06-07 06:42:00,53.1,48.7,29.95,ENE,61,0.0,3.0,85,0.00,,,0.00,Wunderground v.1.15,2013-06-07 11:42:00,
2013-06-07 06:44:00,53.1,48.4,29.95,East,86,1.0,3.0,84,0.00,,,0.00,Wunderground v.1.15,2013-06-07 11:44:00,
2013-06-07 06:46:00,53.1,48.4,29.95,ENE,77,0.0,3.0,84,0.00,,,0.00,Wunderground v.1.15,2013-06-07 11:46:00,
2013-06-07 06:48:00,53.2,48.5,29.95,ENE,78,0.0,3.0,84,0.00,,,0.00,Wunderground v.1.15,2013-06-07 11:48:00,
2013-06-07 06:49:00,53.2,48.5,29.95,East,88,0.0,3.0,84,0.00,,,0.00,Wunderground v.1.15,2013-06-07 11:49:00,
2013-06-07 06:50:00,53.2,48.5,29.95,East,88,0.0,3.0,84,0.00,,,0.00,Wunderground v.1.15,2013-06-07 11:50:00,
2013-06-07 06:51:00,53.2,48.5,29.95,East,88,0.0,3.0,84,0.00,,,0.00,Wunderground v.1.15,2013-06-07 11:51:00,
2013-06-07 06:54:00,53.2,48.5,29.95,ENE,61,0.0,2.0,84,0.00,,,0.00,Wunderground v.1.15,2013-06-07 11:54:00,
2013-06-07 06:56:00,53.3,48.6,29.95,East,83,1.0,3.0,84,0.00,,,0.00,Wunderground v.1.15,2013-06-07 11:56:00,
2013-06-07 06:58:00,53.3,48.6,29.95,ENE,67,0.0,3.0,84,0.00,,,0.00,Wunderground v.1.15,2013-06-07 11:58:00,
2013-06-07 06:59:00,53.3,48.6,29.96,ENE,67,0.0,3.0,84,0.00,,,0.00,Wunderground v.1.15,2013-06-07 11:59:00,
2013-06-07 07:00:00,53.0,48.6,29.95,ENE,67,0.0,5.0,85,0.00,,,-99.99,WeatherLink 5.9.3,2013-06-07 12:00:00,
2013-06-07 07:02:00,53.3,48.6,29.95,ENE,62,0.0,0.0,84,0.00,,,0.00,Wunderground v.1.15,2013-06-07 12:02:00,
2013-06-07 07:04:00,53.4,49.0,29.95,ENE,68,0.0,1.0,85,0.00,,,0.00,Wunderground v.1.15,2013-06-07 12:04:00,
2013-06-07 07:05:00,53.4,48.7,29.96,ENE,71,0.0,1.0,84,0.00,,,0.00,Wunderground v.1.15,2013-06-07 12:05:00,
2013-06-07 07:06:00,53.4,48.7,29.96,ENE,71,0.0,1.0,84,0.00,,,0.00,Wunderground v.1.15,2013-06-07 12:06:00,
2013-06-07 07:07:00,53.4,48.7,29.96,ENE,71,0.0,2.0,84,0.00,,,0.00,Wunderground v.1.15,2013-06-07 12:07:00,
2013-06-07 07:08:00,53.4,48.7,29.96,ENE,71,1.0,2.0,84,0.00,,,0.00,Wunderground v.1.15,2013-06-07 12:08:00,
2013-06-07 07:09:00,53.4,48.7,29.96,ENE,69,0.0,2.0,84,0.00,,,0.00,Wunderground v.1.15,2013-06-07 12:09:00,
2013-06-07 08:00:00,53.7,48.7,29.96,ENE,67,0.0,7.0,83,0.00,,,-99.99,WeatherLink 5.9.3,2013-06-07 13:00:00,
2013-06-07 08:11:00,54.1,49.4,29.97,ENE,78,0.0,3.0,84,0.00,,,0.00,Wunderground v.1.15,2013-06-07 13:11:00,
2013-06-07 08:12:00,54.1,49.1,29.97,ENE,68,2.0,2.0,83,0.00,,,0.00,Wunderground v.1.15,2013-06-07 13:12:00,
2013-06-07 08:13:00,54.1,49.1,29.97,ENE,69,1.0,2.0,83,0.00,,,0.00,Wunderground v.1.15,2013-06-07 13:13:00,
2013-06-07 08:17:00,54.1,49.1,29.97,ENE,71,0.0,2.0,83,0.00,,,0.00,Wunderground v.1.15,2013-06-07 13:17:00,
2013-06-07 08:18:00,54.1,49.1,29.97,ENE,71,0.0,2.0,83,0.00,,,0.00,Wunderground v.1.15,2013-06-07 13:18:00,
2013-06-07 08:21:00,54.2,49.1,29.97,ENE,70,1.0,1.0,83,0.00,,,0.00,Wunderground v.1.15,2013-06-07 13:21:00,
2013-06-07 08:23:00,54.2,49.1,29.97,ENE,63,0.0,3.0,83,0.00,,,0.00,Wunderground v.1.15,2013-06-07 13:23:00,
2013-06-07 08:24:00,54.2,49.1,29.97,ENE,63,0.0,3.0,83,0.00,,,0.00,Wunderground v.1.15,2013-06-07 13:24:00,
2013-06-07 08:25:00,54.3,49.2,29.97,ENE,65,2.0,3.0,83,0.00,,,0.00,Wunderground v.1.15,2013-06-07 13:25:00,
2013-06-07 08:27:00,54.3,49.2,29.97,ENE,64,0.0,3.0,83,0.00,,,0.00,Wunderground v.1.15,2013-06-07 13:27:00,
2013-06-07 08:28:00,54.3,49.2,29.97,ENE,64,0.0,3.0,83,0.00,,,0.00,Wunderground v.1.15,2013-06-07 13:28:00,
2013-06-07 08:29:00,54.3,49.2,29.97,ENE,64,0.0,3.0,83,0.00,,,0.00,Wunderground v.1.15,2013-06-07 13:29:00,
2013-06-07 08:32:00,54.4,49.3,29.97,East,98,0.0,3.0,83,0.00,,,0.00,Wunderground v.1.15,2013-06-07 13:32:00,
2013-06-07 08:33:00,54.3,49.2,29.97,ENE,74,0.0,3.0,83,0.00,,,0.00,Wunderground v.1.15,2013-06-07 13:33:00,
2013-06-07 08:34:00,54.3,49.2,29.97,ENE,74,0.0,3.0,83,0.00,,,0.00,Wunderground v.1.15,2013-06-07 13:34:00,
2013-06-07 08:37:00,54.4,49.3,29.97,ENE,67,1.0,3.0,83,0.00,,,0.00,Wunderground v.1.15,2013-06-07 13:37:00,
2013-06-07 08:39:00,54.3,49.2,29.97,ENE,67,2.0,3.0,83,0.00,,,0.00,Wunderground v.1.15,2013-06-07 13:39:00,
2013-06-07 08:40:00,54.3,49.2,29.98,ENE,67,3.0,3.0,83,0.00,,,0.00,Wunderground v.1.15,2013-06-07 13:40:00,
2013-06-07 08:41:00,54.3,49.2,29.98,ENE,67,2.0,2.0,83,0.00,,,0.00,Wunderground v.1.15,2013-06-07 13:41:00,
2013-06-07 08:42:00,54.3,49.2,29.97,ENE,67,1.0,2.0,83,0.00,,,0.00,Wunderground v.1.15,2013-06-07 13:42:00,
2013-06-07 08:44:00,54.3,49.6,29.98,ENE,67,0.0,2.0,84,0.00,,,0.00,Wunderground v.1.15,2013-06-07 13:44:00,
2013-06-07 08:46:00,54.2,49.5,29.98,ENE,63,0.0,2.0,84,0.00,,,0.00,Wunderground v.1.15,2013-06-07 13:46:00,
2013-06-07 08:47:00,54.2,49.5,29.98,ENE,60,0.0,4.0,84,0.00,,,0.00,Wunderground v.1.15,2013-06-07 13:47:00,
2013-06-07 08:48:00,54.2,49.5,29.98,ENE,59,2.0,4.0,84,0.00,,,0.00,Wunderground v.1.15,2013-06-07 13:48:00,
2013-06-07 08:49:00,54.1,49.4,29.98,NE,55,1.0,4.0,84,0.00,,,0.00,Wunderground v.1.15,2013-06-07 13:49:00,
2013-06-07 08:52:00,54.1,49.1,29.98,NE,48,3.0,3.0,83,0.00,,,0.00,Wunderground v.1.15,2013-06-07 13:52:00,
2013-06-07 08:53:00,54.0,49.0,29.98,NE,48,0.0,3.0,83,0.00,,,0.00,Wunderground v.1.15,2013-06-07 13:53:00,
2013-06-07 08:54:00,54.0,49.3,29.98,NE,48,2.0,3.0,84,0.00,,,0.00,Wunderground v.1.15,2013-06-07 13:54:00,
2013-06-07 08:55:00,54.0,49.3,29.98,NE,48,3.0,3.0,84,0.00,,,0.00,Wunderground v.1.15,2013-06-07 13:55:00,
2013-06-07 08:59:00,54.0,49.3,29.98,NE,43,1.0,3.0,84,0.00,,,0.00,Wunderground v.1.15,2013-06-07 13:59:00,
2013-06-07 09:00:00,54.0,49.3,29.98,NE,43,4.0,5.0,84,0.00,,,0.00,Wunderground v.1.15,2013-06-07 14:00:00,
2013-06-07 09:01:00,54.0,49.0,29.98,NE,43,2.0,5.0,83,0.00,,,0.00,Wunderground v.1.15,2013-06-07 14:01:00,
2013-06-07 09:03:00,53.9,48.9,29.98,NE,43,0.0,4.0,83,0.00,,,0.00,Wunderground v.1.15,2013-06-07 14:03:00,
2013-06-07 09:04:00,53.9,49.2,29.98,NE,43,0.0,4.0,84,0.00,,,0.00,Wunderground v.1.15,2013-06-07 14:04:00,
2013-06-07 09:06:00,53.9,49.2,29.98,NE,43,0.0,4.0,84,0.00,,,0.00,Wunderground v.1.15,2013-06-07 14:06:00,
2013-06-07 09:09:00,54.0,49.3,29.98,NE,43,0.0,4.0,84,0.00,,,0.00,Wunderground v.1.15,2013-06-07 14:09:00,
2013-06-07 09:10:00,54.0,49.3,29.98,NE,43,1.0,4.0,84,0.00,,,0.00,Wunderground v.1.15,2013-06-07 14:10:00,
2013-06-07 09:12:00,54.1,49.4,29.98,NE,48,1.0,2.0,84,0.00,,,0.00,Wunderground v.1.15,2013-06-07 14:12:00,
2013-06-07 09:14:00,54.1,49.4,29.98,NE,48,1.0,2.0,84,0.00,,,0.00,Wunderground v.1.15,2013-06-07 14:14:00,
2013-06-07 09:17:00,54.2,49.1,29.98,NNE,26,3.0,4.0,83,0.00,,,0.00,Wunderground v.1.15,2013-06-07 14:17:00,
2013-06-07 09:18:00,54.3,49.2,29.98,NE,35,2.0,4.0,83,0.00,,,0.00,Wunderground v.1.15,2013-06-07 14:18:00,
2013-06-07 09:19:00,54.3,49.2,29.98,ENE,65,4.0,4.0,83,0.00,,,0.00,Wunderground v.1.15,2013-06-07 14:19:00,
2013-06-07 09:20:00,54.3,49.2,29.98,ENE,65,0.0,4.0,83,0.00,,,0.00,Wunderground v.1.15,2013-06-07 14:20:00,
2013-06-07 09:21:00,54.3,49.6,29.98,ENE,64,0.0,4.0,84,0.00,,,0.00,Wunderground v.1.15,2013-06-07 14:21:00,
2013-06-07 09:23:00,54.4,49.7,29.98,ENE,59,2.0,3.0,84,0.00,,,0.00,Wunderground v.1.15,2013-06-07 14:23:00,
2013-06-07 09:24:00,54.4,49.3,29.98,ENE,58,2.0,3.0,83,0.00,,,0.00,Wunderground v.1.15,2013-06-07 14:24:00,
2013-06-07 09:25:00,54.5,49.4,29.98,NE,51,4.0,4.0,83,0.00,,,0.00,Wunderground v.1.15,2013-06-07 14:25:00,
2013-06-07 09:27:00,54.5,49.4,29.98,NE,49,2.0,4.0,83,0.00,,,0.00,Wunderground v.1.15,2013-06-07 14:27:00,
2013-06-07 09:28:00,54.5,49.1,29.98,NE,49,2.0,4.0,82,0.00,,,0.00,Wunderground v.1.15,2013-06-07 14:28:00,
2013-06-07 09:31:00,54.6,49.5,29.98,NE,54,3.0,4.0,83,0.00,,,0.00,Wunderground v.1.15,2013-06-07 14:31:00,
2013-06-07 09:32:00,54.6,49.5,29.98,NE,55,3.0,3.0,83,0.00,,,0.00,Wunderground v.1.15,2013-06-07 14:32:00,
2013-06-07 09:33:00,54.7,49.6,29.98,NE,55,0.0,3.0,83,0.00,,,0.00,Wunderground v.1.15,2013-06-07 14:33:00,
2013-06-07 09:36:00,54.7,49.3,29.98,NE,55,0.0,3.0,82,0.00,,,0.00,Wunderground v.1.15,2013-06-07 14:36:00,
2013-06-07 09:37:00,54.8,49.4,29.98,NE,45,3.0,3.0,82,0.00,,,0.00,Wunderground v.1.15,2013-06-07 14:37:00,
2013-06-07 09:38:00,54.8,49.4,29.98,NNE,32,2.0,3.0,82,0.00,,,0.00,Wunderground v.1.15,2013-06-07 14:38:00,
2013-06-07 09:39:00,54.8,49.4,29.98,NNE,32,3.0,3.0,82,0.00,,,0.00,Wunderground v.1.15,2013-06-07 14:39:00,
2013-06-07 09:42:00,54.9,49.5,29.98,NE,52,1.0,3.0,82,0.00,,,0.00,Wunderground v.1.15,2013-06-07 14:42:00,
2013-06-07 09:44:00,54.9,49.5,29.98,East,82,2.0,3.0,82,0.00,,,0.00,Wunderground v.1.15,2013-06-07 14:44:00,
2013-06-07 09:47:00,55.0,49.9,29.98,ENE,63,0.0,3.0,83,0.00,,,0.00,Wunderground v.1.15,2013-06-07 14:47:00,
2013-06-07 09:49:00,55.0,49.9,29.98,NNE,32,2.0,3.0,83,0.00,,,0.00,Wunderground v.1.15,2013-06-07 14:49:00,
2013-06-07 09:50:00,55.1,49.7,29.98,NE,34,2.0,3.0,82,0.00,,,0.00,Wunderground v.1.15,2013-06-07 14:50:00,
2013-06-07 09:51:00,55.1,49.4,29.98,NE,40,1.0,1.0,81,0.00,,,0.00,Wunderground v.1.15,2013-06-07 14:51:00,
2013-06-07 09:54:00,55.2,50.1,29.98,NE,46,1.0,4.0,83,0.00,,,0.00,Wunderground v.1.15,2013-06-07 14:54:00,
2013-06-07 09:55:00,55.2,49.8,29.98,NE,46,0.0,4.0,82,0.00,,,0.00,Wunderground v.1.15,2013-06-07 14:55:00,
2013-06-07 09:56:00,55.3,49.9,29.98,NE,34,1.0,4.0,82,0.00,,,0.00,Wunderground v.1.15,2013-06-07 14:56:00,
2013-06-07 09:58:00,55.4,49.7,29.98,NE,36,0.0,4.0,81,0.00,,,0.00,Wunderground v.1.15,2013-06-07 14:58:00,
2013-06-07 10:00:00,55.5,49.8,29.98,NE,36,0.0,4.0,81,0.00,,,0.00,Wunderground v.1.15,2013-06-07 15:00:00,
2013-06-07 10:01:00,55.5,49.8,29.98,NE,36,0.0,4.0,81,0.00,,,0.00,Wunderground v.1.15,2013-06-07 15:01:00,
2013-06-07 10:02:00,55.6,49.9,29.98,NE,41,2.0,2.0,81,0.00,,,0.00,Wunderground v.1.15,2013-06-07 15:02:00,
2013-06-07 10:04:00,55.6,49.9,29.98,NE,54,0.0,2.0,81,0.00,,,0.00,Wunderground v.1.15,2013-06-07 15:04:00,
2013-06-07 10:07:00,55.8,50.1,29.97,ENE,61,2.0,4.0,81,0.00,,,0.00,Wunderground v.1.15,2013-06-07 15:07:00,
2013-06-07 10:08:00,55.8,50.1,29.97,ENE,62,0.0,4.0,81,0.00,,,0.00,Wunderground v.1.15,2013-06-07 15:08:00,
2013-06-07 10:09:00,55.8,50.4,29.97,ENE,62,0.0,4.0,82,0.00,,,0.00,Wunderground v.1.15,2013-06-07 15:09:00,
2013-06-07 10:11:00,55.9,50.2,29.97,ENE,62,0.0,4.0,81,0.00,,,0.00,Wunderground v.1.15,2013-06-07 15:11:00,
2013-06-07 10:12:00,55.9,50.2,29.97,ENE,59,3.0,3.0,81,0.00,,,0.00,Wunderground v.1.15,2013-06-07 15:12:00,
2013-06-07 10:13:00,56.0,50.3,29.97,ENE,59,0.0,3.0,81,0.00,,,0.00,Wunderground v.1.15,2013-06-07 15:13:00,
2013-06-07 10:15:00,56.0,49.9,29.97,ENE,59,0.0,3.0,80,0.00,,,0.00,Wunderground v.1.15,2013-06-07 15:15:00,
2013-06-07 10:16:00,56.1,50.3,29.97,ENE,59,0.0,3.0,81,0.00,,,0.00,Wunderground v.1.15,2013-06-07 15:16:00,
2013-06-07 10:19:00,56.4,50.3,29.97,ENE,67,0.0,3.0,80,0.00,,,0.00,Wunderground v.1.15,2013-06-07 15:19:00,
2013-06-07 10:20:00,56.4,50.3,29.97,ENE,67,0.0,3.0,80,0.00,,,0.00,Wunderground v.1.15,2013-06-07 15:20:00,
2013-06-07 10:22:00,56.5,50.1,29.97,ENE,67,0.0,1.0,79,0.00,,,0.00,Wunderground v.1.15,2013-06-07 15:22:00,
2013-06-07 10:25:00,56.6,50.2,29.97,ENE,67,0.0,1.0,79,0.00,,,0.00,Wunderground v.1.15,2013-06-07 15:25:00,
2013-06-07 10:26:00,56.7,49.9,29.97,NE,34,4.0,4.0,78,0.00,,,0.00,Wunderground v.1.15,2013-06-07 15:26:00,
2013-06-07 10:27:00,56.8,50.4,29.97,NE,34,0.0,4.0,79,0.00,,,0.00,Wunderground v.1.15,2013-06-07 15:27:00,
2013-06-07 10:29:00,57.0,50.5,29.97,NE,37,2.0,4.0,79,0.00,,,0.00,Wunderground v.1.15,2013-06-07 15:29:00,
2013-06-07 10:31:00,57.1,50.6,29.97,NE,36,2.0,2.0,79,0.00,,,0.00,Wunderground v.1.15,2013-06-07 15:31:00,
2013-06-07 10:33:00,57.2,50.7,29.97,NNE,32,1.0,2.0,79,0.00,,,0.00,Wunderground v.1.15,2013-06-07 15:33:00,
2013-06-07 10:34:00,57.2,50.1,29.97,NE,35,2.0,3.0,77,0.00,,,0.00,Wunderground v.1.15,2013-06-07 15:34:00,
2013-06-07 10:37:00,57.4,50.6,29.97,NNE,31,0.0,3.0,78,0.00,,,0.00,Wunderground v.1.15,2013-06-07 15:37:00,
2013-06-07 10:38:00,57.4,50.6,29.97,NNE,31,1.0,3.0,78,0.00,,,0.00,Wunderground v.1.15,2013-06-07 15:38:00,
2013-06-07 10:41:00,57.7,51.6,29.98,ENE,75,1.0,3.0,80,0.00,,,0.00,Wunderground v.1.15,2013-06-07 15:41:00,
2013-06-07 10:43:00,57.9,50.7,29.97,East,90,1.0,1.0,77,0.00,,,0.00,Wunderground v.1.15,2013-06-07 15:43:00,
2013-06-07 10:44:00,58.0,50.8,29.98,East,90,0.0,1.0,77,0.00,,,0.00,Wunderground v.1.15,2013-06-07 15:44:00,
2013-06-07 10:46:00,58.0,50.5,29.97,East,90,0.0,1.0,76,0.00,,,0.00,Wunderground v.1.15,2013-06-07 15:46:00,
2013-06-07 10:47:00,58.0,50.8,29.97,East,90,0.0,1.0,77,0.00,,,0.00,Wunderground v.1.15,2013-06-07 15:47:00,
2013-06-07 10:49:00,58.2,51.4,29.98,East,92,0.0,1.0,78,0.00,,,0.00,Wunderground v.1.15,2013-06-07 15:49:00,
2013-06-07 10:50:00,58.2,51.4,29.97,East,92,0.0,1.0,78,0.00,,,0.00,Wunderground v.1.15,2013-06-07 15:50:00,
2013-06-07 10:52:00,58.4,50.9,29.97,East,92,0.0,0.0,76,0.00,,,0.00,Wunderground v.1.15,2013-06-07 15:52:00,
2013-06-07 10:54:00,58.6,50.3,29.97,East,92,0.0,0.0,74,0.00,,,0.00,Wunderground v.1.15,2013-06-07 15:54:00,
2013-06-07 10:56:00,58.7,50.8,29.97,ENE,67,2.0,2.0,75,0.00,,,0.00,Wunderground v.1.15,2013-06-07 15:56:00,
2013-06-07 10:58:00,58.8,51.2,29.97,NE,46,3.0,3.0,76,0.00,,,0.00,Wunderground v.1.15,2013-06-07 15:58:00,
2013-06-07 10:59:00,58.9,51.7,29.97,NE,38,2.0,5.0,77,0.00,,,0.00,Wunderground v.1.15,2013-06-07 15:59:00,
2013-06-07 11:02:00,59.1,50.8,29.97,NNE,24,0.0,2.0,74,0.00,,,0.00,Wunderground v.1.15,2013-06-07 16:02:00,
2013-06-07 11:03:00,59.1,51.2,29.98,NNE,24,2.0,2.0,75,0.00,,,0.00,Wunderground v.1.15,2013-06-07 16:03:00,
2013-06-07 11:04:00,59.2,51.3,29.97,NNE,22,2.0,3.0,75,0.00,,,0.00,Wunderground v.1.15,2013-06-07 16:04:00,
2013-06-07 11:07:00,59.3,51.0,29.97,NNE,31,0.0,3.0,74,0.00,,,0.00,Wunderground v.1.15,2013-06-07 16:07:00,
2013-06-07 11:08:00,59.4,52.2,29.97,NNE,31,1.0,3.0,77,0.00,,,0.00,Wunderground v.1.15,2013-06-07 16:08:00,
2013-06-07 11:09:00,59.5,51.9,29.97,NE,49,3.0,3.0,76,0.00,,,0.00,Wunderground v.1.15,2013-06-07 16:09:00,
2013-06-07 11:10:00,59.5,51.6,29.97,NE,51,3.0,4.0,75,0.00,,,0.00,Wunderground v.1.15,2013-06-07 16:10:00,
2013-06-07 11:11:00,59.5,51.9,29.97,NE,46,0.0,1.0,76,0.00,,,0.00,Wunderground v.1.15,2013-06-07 16:11:00,
2013-06-07 11:14:00,59.8,51.1,29.97,NE,46,0.0,2.0,73,0.00,,,0.00,Wunderground v.1.15,2013-06-07 16:14:00,
2013-06-07 11:15:00,59.8,52.2,29.97,NE,46,0.0,2.0,76,0.00,,,0.00,Wunderground v.1.15,2013-06-07 16:15:00,
2013-06-07 11:16:00,59.8,51.5,29.97,NE,47,0.0,2.0,74,0.00,,,0.00,Wunderground v.1.15,2013-06-07 16:16:00,
2013-06-07 11:19:00,60.2,52.2,29.97,ENE,57,1.0,4.0,75,0.00,,,0.00,Wunderground v.1.15,2013-06-07 16:19:00,
2013-06-07 11:20:00,60.3,52.3,29.97,NE,48,4.0,4.0,75,0.00,,,0.00,Wunderground v.1.15,2013-06-07 16:20:00,
2013-06-07 11:22:00,60.4,52.1,29.97,NE,45,0.0,1.0,74,0.00,,,0.00,Wunderground v.1.15,2013-06-07 16:22:00,
2013-06-07 11:23:00,60.5,52.2,29.97,NE,45,0.0,1.0,74,0.00,,,0.00,Wunderground v.1.15,2013-06-07 16:23:00,
2013-06-07 11:25:00,60.6,51.5,29.97,NE,39,3.0,3.0,72,0.00,,,0.00,Wunderground v.1.15,2013-06-07 16:25:00,
2013-06-07 11:26:00,60.6,51.9,29.97,NE,39,3.0,3.0,73,0.00,,,0.00,Wunderground v.1.15,2013-06-07 16:26:00,
2013-06-07 11:29:00,60.7,52.0,29.96,NE,34,0.0,4.0,73,0.00,,,0.00,Wunderground v.1.15,2013-06-07 16:29:00,
2013-06-07 11:31:00,60.7,51.6,29.96,NE,34,0.0,4.0,72,0.00,,,0.00,Wunderground v.1.15,2013-06-07 16:31:00,
2013-06-07 11:32:00,60.8,52.8,29.96,NNE,19,0.0,1.0,75,0.00,,,0.00,Wunderground v.1.15,2013-06-07 16:32:00,
2013-06-07 11:34:00,61.0,53.0,29.96,NNE,24,0.0,1.0,75,0.00,,,0.00,Wunderground v.1.15,2013-06-07 16:34:00,
2013-06-07 11:36:00,61.3,52.9,29.96,East,86,1.0,3.0,74,0.00,,,0.00,Wunderground v.1.15,2013-06-07 16:36:00,
2013-06-07 11:39:00,61.8,52.3,29.96,East,88,1.0,3.0,71,0.00,,,0.00,Wunderground v.1.15,2013-06-07 16:39:00,
2013-06-07 11:43:00,62.1,52.6,29.96,East,93,0.0,2.0,71,0.00,,,0.00,Wunderground v.1.15,2013-06-07 16:43:00,
2013-06-07 11:44:00,62.4,55.1,29.96,East,93,0.0,2.0,77,0.00,,,0.00,Wunderground v.1.15,2013-06-07 16:44:00,
2013-06-07 11:50:00,63.5,54.7,29.96,East,96,2.0,2.0,73,0.00,,,0.00,Wunderground v.1.15,2013-06-07 16:50:00,
2013-06-07 11:51:00,63.7,55.3,29.95,East,96,0.0,2.0,74,0.00,,,0.00,Wunderground v.1.15,2013-06-07 16:51:00,
2013-06-07 11:52:00,64.1,54.9,29.95,East,86,0.0,2.0,72,0.00,,,0.00,Wunderground v.1.15,2013-06-07 16:52:00,
2013-06-07 11:56:00,64.7,53.5,29.96,East,81,0.0,2.0,67,0.00,,,0.00,Wunderground v.1.15,2013-06-07 16:56:00,
2013-06-07 11:57:00,64.9,53.3,29.95,East,98,0.0,2.0,66,0.00,,,0.00,Wunderground v.1.15,2013-06-07 16:57:00,
2013-06-07 11:59:00,65.0,53.8,29.95,ENE,77,0.0,3.0,67,0.00,,,0.00,Wunderground v.1.15,2013-06-07 16:59:00,
2013-06-07 12:01:00,65.1,53.0,29.95,East,96,0.0,3.0,65,0.00,,,0.00,Wunderground v.1.15,2013-06-07 17:01:00,
2013-06-07 12:03:00,65.4,53.3,29.95,East,92,0.0,1.0,65,0.00,,,0.00,Wunderground v.1.15,2013-06-07 17:03:00,
2013-06-07 12:06:00,65.6,54.8,29.95,ESE,113,0.0,1.0,68,0.00,,,0.00,Wunderground v.1.15,2013-06-07 17:06:00,
2013-06-07 12:07:00,65.6,54.8,29.95,ESE,113,1.0,1.0,68,0.00,,,0.00,Wunderground v.1.15,2013-06-07 17:07:00,
2013-06-07 12:11:00,65.2,52.7,29.95,NNE,24,2.0,2.0,64,0.00,,,0.00,Wunderground v.1.15,2013-06-07 17:11:00,
2013-06-07 12:13:00,65.1,52.6,29.95,NE,45,3.0,3.0,64,0.00,,,0.00,Wunderground v.1.15,2013-06-07 17:13:00,
2013-06-07 12:14:00,65.2,53.6,29.95,NNE,24,4.0,4.0,66,0.00,,,0.00,Wunderground v.1.15,2013-06-07 17:14:00,
2013-06-07 12:18:00,65.4,55.0,29.95,ENE,67,1.0,4.0,69,0.00,,,0.00,Wunderground v.1.15,2013-06-07 17:18:00,
2013-06-07 12:19:00,65.5,51.7,29.95,East,82,0.0,4.0,61,0.00,,,0.00,Wunderground v.1.15,2013-06-07 17:19:00,
2013-06-07 12:21:00,65.7,53.2,29.94,ESE,118,0.0,2.0,64,0.00,,,0.00,Wunderground v.1.15,2013-06-07 17:21:00,
2013-06-07 12:24:00,65.8,52.9,29.95,ENE,69,0.0,2.0,63,0.00,,,0.00,Wunderground v.1.15,2013-06-07 17:24:00,
2013-06-07 12:25:00,65.7,51.0,29.95,ENE,57,2.0,2.0,59,0.00,,,0.00,Wunderground v.1.15,2013-06-07 17:25:00,
2013-06-07 12:26:00,65.7,51.0,29.95,ENE,57,0.0,2.0,59,0.00,,,0.00,Wunderground v.1.15,2013-06-07 17:26:00,
2013-06-07 12:27:00,65.7,51.9,29.94,ENE,57,0.0,3.0,61,0.00,,,0.00,Wunderground v.1.15,2013-06-07 17:27:00,
2013-06-07 12:29:00,65.7,53.6,29.94,ENE,57,0.0,3.0,65,0.00,,,0.00,Wunderground v.1.15,2013-06-07 17:29:00,
2013-06-07 12:31:00,65.7,53.2,29.94,NE,40,0.0,3.0,64,0.00,,,0.00,Wunderground v.1.15,2013-06-07 17:31:00,
2013-06-07 12:32:00,65.7,51.4,29.94,NE,43,0.0,1.0,60,0.00,,,0.00,Wunderground v.1.15,2013-06-07 17:32:00,
2013-06-07 12:34:00,65.8,52.0,29.94,East,94,1.0,1.0,61,0.00,,,0.00,Wunderground v.1.15,2013-06-07 17:34:00,
2013-06-07 12:35:00,65.7,51.9,29.94,East,94,0.0,1.0,61,0.00,,,0.00,Wunderground v.1.15,2013-06-07 17:35:00,
2013-06-07 12:37:00,65.8,53.3,29.94,SE,128,0.0,2.0,64,0.00,,,0.00,Wunderground v.1.15,2013-06-07 17:37:00,
2013-06-07 12:38:00,65.9,52.9,29.94,SE,128,4.0,4.0,63,0.00,,,0.00,Wunderground v.1.15,2013-06-07 17:38:00,
2013-06-07 12:40:00,65.9,52.1,29.94,ENE,67,1.0,4.0,61,0.00,,,0.00,Wunderground v.1.15,2013-06-07 17:40:00,
2013-06-07 12:43:00,66.2,53.7,29.94,ENE,57,2.0,5.0,64,0.00,,,0.00,Wunderground v.1.15,2013-06-07 17:43:00,
2013-06-07 12:44:00,66.5,55.6,29.94,NE,40,0.0,5.0,68,0.00,,,0.00,Wunderground v.1.15,2013-06-07 17:44:00,
2013-06-07 12:45:00,66.7,55.4,29.94,NE,40,0.0,5.0,67,0.00,,,0.00,Wunderground v.1.15,2013-06-07 17:45:00,
2013-06-07 12:47:00,66.7,51.5,29.94,East,88,0.0,5.0,58,0.00,,,0.00,Wunderground v.1.15,2013-06-07 17:47:00,
2013-06-07 12:48:00,66.9,52.6,29.94,NE,34,0.0,5.0,60,0.00,,,0.00,Wunderground v.1.15,2013-06-07 17:48:00,
2013-06-07 12:51:00,67.0,51.3,29.94,NE,45,0.0,5.0,57,0.00,,,0.00,Wunderground v.1.15,2013-06-07 17:51:00,
2013-06-07 12:52:00,67.1,53.2,29.94,NE,42,0.0,2.0,61,0.00,,,0.00,Wunderground v.1.15,2013-06-07 17:52:00,
2013-06-07 12:54:00,67.0,51.7,29.94,NE,51,2.0,2.0,58,0.00,,,0.00,Wunderground v.1.15,2013-06-07 17:54:00,
2013-06-07 12:57:00,67.0,53.1,29.94,NNE,13,1.0,5.0,61,0.00,,,0.00,Wunderground v.1.15,2013-06-07 17:57:00,
2013-06-07 12:58:00,67.0,53.1,29.94,ENE,65,0.0,5.0,61,0.00,,,0.00,Wunderground v.1.15,2013-06-07 17:58:00,
2013-06-07 13:00:00,67.2,53.3,29.93,ENE,67,0.0,5.0,61,0.00,,,0.00,Wunderground v.1.15,2013-06-07 18:00:00,
2013-06-07 13:01:00,67.3,52.5,29.93,ENE,69,0.0,1.0,59,0.00,,,0.00,Wunderground v.1.15,2013-06-07 18:01:00,
2013-06-07 13:02:00,67.4,51.2,29.93,ENE,69,0.0,1.0,56,0.00,,,0.00,Wunderground v.1.15,2013-06-07 18:02:00,
2013-06-07 13:05:00,67.5,51.7,29.93,ENE,66,0.0,1.0,57,0.00,,,0.00,Wunderground v.1.15,2013-06-07 18:05:00,
2013-06-07 13:06:00,67.6,52.3,29.93,NE,53,0.0,1.0,58,0.00,,,0.00,Wunderground v.1.15,2013-06-07 18:06:00,
2013-06-07 13:07:00,67.5,51.2,29.93,NE,53,0.0,1.0,56,0.00,,,0.00,Wunderground v.1.15,2013-06-07 18:07:00,
2013-06-07 13:10:00,67.6,50.4,29.93,ESE,116,1.0,2.0,54,0.00,,,0.00,Wunderground v.1.15,2013-06-07 18:10:00,
2013-06-07 13:11:00,67.6,50.4,29.93,ESE,116,1.0,2.0,54,0.00,,,0.00,Wunderground v.1.15,2013-06-07 18:11:00,
2013-06-07 13:13:00,67.5,52.2,29.93,East,98,0.0,0.0,58,0.00,,,0.00,Wunderground v.1.15,2013-06-07 18:13:00,
2013-06-07 13:15:00,67.5,51.7,29.93,South,172,3.0,5.0,57,0.00,,,0.00,Wunderground v.1.15,2013-06-07 18:15:00,
2013-06-07 13:16:00,67.5,50.3,29.93,South,171,0.0,5.0,54,0.00,,,0.00,Wunderground v.1.15,2013-06-07 18:16:00,
2013-06-07 13:18:00,67.5,50.8,29.92,ENE,78,1.0,5.0,55,0.00,,,0.00,Wunderground v.1.15,2013-06-07 18:18:00,
2013-06-07 13:19:00,67.5,51.2,29.92,ENE,78,0.0,5.0,56,0.00,,,0.00,Wunderground v.1.15,2013-06-07 18:19:00,
2013-06-07 13:23:00,68.0,50.2,29.92,East,84,1.0,1.0,53,0.00,,,0.00,Wunderground v.1.15,2013-06-07 18:23:00,
2013-06-07 13:26:00,68.2,51.4,29.92,ESE,103,0.0,6.0,55,0.00,,,0.00,Wunderground v.1.15,2013-06-07 18:26:00,
2013-06-07 13:27:00,68.1,51.8,29.92,ENE,74,2.0,6.0,56,0.00,,,0.00,Wunderground v.1.15,2013-06-07 18:27:00,
2013-06-07 13:29:00,68.1,50.8,29.92,East,99,1.0,6.0,54,0.00,,,0.00,Wunderground v.1.15,2013-06-07 18:29:00,
2013-06-07 13:32:00,68.2,50.4,29.92,NE,55,1.0,2.0,53,0.00,,,0.00,Wunderground v.1.15,2013-06-07 18:32:00,
2013-06-07 13:33:00,68.3,52.0,29.92,NE,56,0.0,2.0,56,0.00,,,0.00,Wunderground v.1.15,2013-06-07 18:33:00,
2013-06-07 13:34:00,68.5,53.6,29.92,SE,134,3.0,3.0,59,0.00,,,0.00,Wunderground v.1.15,2013-06-07 18:34:00,
2013-06-07 13:38:00,68.8,52.0,29.92,ENE,67,0.0,3.0,55,0.00,,,0.00,Wunderground v.1.15,2013-06-07 18:38:00,
2013-06-07 13:39:00,68.8,52.0,29.92,ESE,123,1.0,3.0,55,0.00,,,0.00,Wunderground v.1.15,2013-06-07 18:39:00,
2013-06-07 13:40:00,68.8,52.5,29.92,East,101,0.0,3.0,56,0.00,,,0.00,Wunderground v.1.15,2013-06-07 18:40:00,
2013-06-07 13:41:00,68.7,51.9,29.92,ESE,108,0.0,3.0,55,0.00,,,0.00,Wunderground v.1.15,2013-06-07 18:41:00,
2013-06-07 13:44:00,68.9,50.5,29.92,ESE,104,0.0,1.0,52,0.00,,,0.00,Wunderground v.1.15,2013-06-07 18:44:00,
2013-06-07 13:46:00,69.1,52.2,29.92,ESE,109,1.0,1.0,55,0.00,,,0.00,Wunderground v.1.15,2013-06-07 18:46:00,
2013-06-07 13:48:00,69.3,50.9,29.92,East,96,0.0,2.0,52,0.00,,,0.00,Wunderground v.1.15,2013-06-07 18:48:00,
2013-06-07 13:49:00,69.4,51.5,29.92,ESE,115,0.0,3.0,53,0.00,,,0.00,Wunderground v.1.15,2013-06-07 18:49:00,
2013-06-07 13:52:00,69.6,52.7,29.92,ESE,104,1.0,1.0,55,0.00,,,0.00,Wunderground v.1.15,2013-06-07 18:52:00,
2013-06-07 13:54:00,69.7,51.3,29.92,ESE,103,3.0,3.0,52,0.00,,,0.00,Wunderground v.1.15,2013-06-07 18:54:00,
2013-06-07 13:55:00,69.7,50.2,29.92,ESE,103,1.0,3.0,50,0.00,,,0.00,Wunderground v.1.15,2013-06-07 18:55:00,
2013-06-07 13:57:00,69.5,52.1,29.92,ESE,102,1.0,3.0,54,0.00,,,0.00,Wunderground v.1.15,2013-06-07 18:57:00,
2013-06-07 13:58:00,69.4,52.0,29.92,ESE,102,1.0,3.0,54,0.00,,,0.00,Wunderground v.1.15,2013-06-07 18:58:00,
2013-06-07 14:00:00,69.3,51.4,29.92,ESE,102,0.0,5.0,53,0.00,,,0.00,Wunderground v.1.15,2013-06-07 19:00:00,
2013-06-07 14:01:00,69.3,49.3,29.92,ESE,102,0.0,5.0,49,0.00,,,0.00,Wunderground v.1.15,2013-06-07 19:01:00,
2013-06-07 14:03:00,69.3,49.9,29.92,East,88,1.0,1.0,50,0.00,,,0.00,Wunderground v.1.15,2013-06-07 19:03:00,
2013-06-07 14:05:00,69.3,49.9,29.92,NNW,332,0.0,1.0,50,0.00,,,0.00,Wunderground v.1.15,2013-06-07 19:05:00,
2013-06-07 14:07:00,69.3,52.4,29.92,East,80,0.0,4.0,55,0.00,,,0.00,Wunderground v.1.15,2013-06-07 19:07:00,
2013-06-07 14:08:00,69.4,51.5,29.92,NE,35,4.0,4.0,53,0.00,,,0.00,Wunderground v.1.15,2013-06-07 19:08:00,
2013-06-07 14:13:00,69.6,52.2,29.91,NE,34,0.0,1.0,54,0.00,,,0.00,Wunderground v.1.15,2013-06-07 19:13:00,
2013-06-07 14:15:00,69.6,51.7,29.92,NE,34,1.0,2.0,53,0.00,,,0.00,Wunderground v.1.15,2013-06-07 19:15:00,
2013-06-07 14:17:00,69.8,51.9,29.92,East,96,0.0,2.0,53,0.00,,,0.00,Wunderground v.1.15,2013-06-07 19:17:00,
2013-06-07 14:18:00,69.8,50.9,29.91,East,98,0.0,2.0,51,0.00,,,0.00,Wunderground v.1.15,2013-06-07 19:18:00,
2013-06-07 14:20:00,70.0,50.5,29.92,ENE,57,0.0,2.0,50,0.00,,,0.00,Wunderground v.1.15,2013-06-07 19:20:00,
2013-06-07 14:23:00,70.3,50.8,29.92,SE,125,3.0,3.0,50,0.00,,,0.00,Wunderground v.1.15,2013-06-07 19:23:00,
2013-06-07 14:25:00,70.3,49.7,29.92,ESE,108,3.0,3.0,48,0.00,,,0.00,Wunderground v.1.15,2013-06-07 19:25:00,
2013-06-07 14:26:00,70.3,49.1,29.92,ESE,123,1.0,4.0,47,0.00,,,0.00,Wunderground v.1.15,2013-06-07 19:26:00,
2013-06-07 14:31:00,70.2,52.8,29.91,ENE,74,0.0,4.0,54,0.00,,,0.00,Wunderground v.1.15,2013-06-07 19:31:00,
2013-06-07 14:33:00,70.0,48.8,29.91,SE,131,2.0,6.0,47,0.00,,,0.00,Wunderground v.1.15,2013-06-07 19:33:00,
2013-06-07 14:34:00,69.9,49.9,29.91,SE,130,3.0,6.0,49,0.00,,,0.00,Wunderground v.1.15,2013-06-07 19:34:00,
2013-06-07 14:36:00,69.8,50.9,29.92,SE,130,0.0,6.0,51,0.00,,,0.00,Wunderground v.1.15,2013-06-07 19:36:00,
2013-06-07 14:39:00,69.6,49.6,29.92,East,100,0.0,6.0,49,0.00,,,0.00,Wunderground v.1.15,2013-06-07 19:39:00,
2013-06-07 14:41:00,69.8,50.9,29.91,ESE,106,1.0,2.0,51,0.00,,,0.00,Wunderground v.1.15,2013-06-07 19:41:00,
2013-06-07 14:42:00,69.8,50.9,29.91,ESE,103,0.0,2.0,51,0.00,,,0.00,Wunderground v.1.15,2013-06-07 19:42:00,
2013-06-07 14:44:00,69.8,48.7,29.91,ESE,119,3.0,7.0,47,0.00,,,0.00,Wunderground v.1.15,2013-06-07 19:44:00,
2013-06-07 14:47:00,69.9,49.9,29.91,ESE,119,0.0,7.0,49,0.00,,,0.00,Wunderground v.1.15,2013-06-07 19:47:00,
2013-06-07 14:48:00,69.9,49.9,29.91,ESE,119,0.0,7.0,49,0.00,,,0.00,Wunderground v.1.15,2013-06-07 19:48:00,
2013-06-07 14:51:00,70.3,52.9,29.91,SE,134,6.0,6.0,54,0.00,,,0.00,Wunderground v.1.15,2013-06-07 19:51:00,
2013-06-07 14:53:00,70.3,48.5,29.91,SE,126,0.0,6.0,46,0.00,,,0.00,Wunderground v.1.15,2013-06-07 19:53:00,
2013-06-07 14:54:00,70.4,49.8,29.91,SE,140,3.0,6.0,48,0.00,,,0.00,Wunderground v.1.15,2013-06-07 19:54:00,
2013-06-07 14:57:00,70.4,50.3,29.91,ESE,116,0.0,6.0,49,0.00,,,0.00,Wunderground v.1.15,2013-06-07 19:57:00,
2013-06-07 14:59:00,70.3,50.2,29.91,SE,130,4.0,6.0,49,0.00,,,0.00,Wunderground v.1.15,2013-06-07 19:59:00,
2013-06-07 15:00:00,70.3,49.1,29.91,ESE,110,4.0,6.0,47,0.00,,,0.00,Wunderground v.1.15,2013-06-07 20:00:00,
2013-06-07 15:01:00,70.3,47.3,29.91,ESE,119,5.0,5.0,44,0.00,,,0.00,Wunderground v.1.15,2013-06-07 20:01:00,
2013-06-07 15:03:00,70.3,50.2,29.91,SSE,158,4.0,6.0,49,0.00,,,0.00,Wunderground v.1.15,2013-06-07 20:03:00,
2013-06-07 15:06:00,70.3,52.9,29.91,SSE,157,1.0,6.0,54,0.00,,,0.00,Wunderground v.1.15,2013-06-07 20:06:00,
2013-06-07 15:07:00,70.3,51.8,29.91,SSE,157,0.0,6.0,52,0.00,,,0.00,Wunderground v.1.15,2013-06-07 20:07:00,
2013-06-07 15:09:00,70.3,48.5,29.91,SE,134,0.0,6.0,46,0.00,,,0.00,Wunderground v.1.15,2013-06-07 20:09:00,
2013-06-07 15:12:00,70.3,49.7,29.91,ESE,111,3.0,3.0,48,0.00,,,0.00,Wunderground v.1.15,2013-06-07 20:12:00,
2013-06-07 15:14:00,70.4,48.0,29.91,SE,138,0.0,6.0,45,0.00,,,0.00,Wunderground v.1.15,2013-06-07 20:14:00,
2013-06-07 15:15:00,70.4,48.0,29.91,SE,136,0.0,6.0,45,0.00,,,0.00,Wunderground v.1.15,2013-06-07 20:15:00,
2013-06-07 15:18:00,70.6,48.8,29.91,SE,124,2.0,6.0,46,0.00,,,0.00,Wunderground v.1.15,2013-06-07 20:18:00,
2013-06-07 15:19:00,70.7,48.3,29.91,SE,138,1.0,6.0,45,0.00,,,0.00,Wunderground v.1.15,2013-06-07 20:19:00,
2013-06-07 15:22:00,70.8,50.1,29.91,ESE,117,0.0,2.0,48,0.00,,,0.00,Wunderground v.1.15,2013-06-07 20:22:00,
2013-06-07 15:26:00,70.8,47.2,29.90,ESE,120,1.0,3.0,43,0.00,,,0.00,Wunderground v.1.15,2013-06-07 20:26:00,
2013-06-07 15:27:00,70.8,50.1,29.90,ESE,120,0.0,3.0,48,0.00,,,0.00,Wunderground v.1.15,2013-06-07 20:27:00,
2013-06-07 15:28:00,70.9,50.2,29.90,ESE,121,0.0,3.0,48,0.00,,,0.00,Wunderground v.1.15,2013-06-07 20:28:00,
2013-06-07 15:31:00,70.9,48.5,29.90,SE,140,2.0,2.0,45,0.00,,,0.00,Wunderground v.1.15,2013-06-07 20:31:00,
2013-06-07 15:33:00,70.9,49.7,29.90,SE,140,0.0,2.0,47,0.00,,,0.00,Wunderground v.1.15,2013-06-07 20:33:00,
2013-06-07 15:34:00,71.0,48.0,29.90,SE,140,0.0,2.0,44,0.00,,,0.00,Wunderground v.1.15,2013-06-07 20:34:00,
2013-06-07 15:35:00,71.0,48.6,29.90,SE,133,2.0,2.0,45,0.00,,,0.00,Wunderground v.1.15,2013-06-07 20:35:00,
2013-06-07 15:37:00,71.0,48.6,29.90,East,86,0.0,2.0,45,0.00,,,0.00,Wunderground v.1.15,2013-06-07 20:37:00,
2013-06-07 15:40:00,71.1,48.7,29.90,NE,51,4.0,4.0,45,0.00,,,0.00,Wunderground v.1.15,2013-06-07 20:40:00,
2013-06-07 15:41:00,71.1,49.3,29.90,ENE,74,1.0,4.0,46,0.00,,,0.00,Wunderground v.1.15,2013-06-07 20:41:00,
2013-06-07 15:42:00,71.1,49.3,29.90,SE,125,5.0,5.0,46,0.00,,,0.00,Wunderground v.1.15,2013-06-07 20:42:00,
2013-06-07 15:43:00,71.1,51.0,29.90,ESE,114,1.0,5.0,49,0.00,,,0.00,Wunderground v.1.15,2013-06-07 20:43:00,
2013-06-07 15:47:00,70.8,48.4,29.90,SE,125,5.0,5.0,45,0.00,,,0.00,Wunderground v.1.15,2013-06-07 20:47:00,
2013-06-07 15:48:00,70.7,47.7,29.90,SE,128,0.0,5.0,44,0.00,,,0.00,Wunderground v.1.15,2013-06-07 20:48:00,
2013-06-07 15:53:00,70.9,50.2,29.90,SE,125,0.0,1.0,48,0.00,,,0.00,Wunderground v.1.15,2013-06-07 20:53:00,
2013-06-07 15:54:00,71.0,50.3,29.90,SE,128,2.0,2.0,48,0.00,,,0.00,Wunderground v.1.15,2013-06-07 20:54:00,
2013-06-07 15:57:00,71.1,48.7,29.90,ESE,103,0.0,5.0,45,0.00,,,0.00,Wunderground v.1.15,2013-06-07 20:57:00,
2013-06-07 16:00:00,71.0,48.0,29.89,SE,146,2.0,5.0,44,0.00,,,0.00,Wunderground v.1.15,2013-06-07 21:00:00,
2013-06-07 16:03:00,71.0,48.6,29.89,ESE,119,2.0,2.0,45,0.00,,,0.00,Wunderground v.1.15,2013-06-07 21:03:00,
2013-06-07 16:04:00,70.9,48.5,29.89,ESE,106,0.0,2.0,45,0.00,,,0.00,Wunderground v.1.15,2013-06-07 21:04:00,
2013-06-07 16:05:00,71.0,48.6,29.89,ENE,67,1.0,2.0,45,0.00,,,0.00,Wunderground v.1.15,2013-06-07 21:05:00,
2013-06-07 16:08:00,71.0,48.6,29.89,ENE,68,0.0,2.0,45,0.00,,,0.00,Wunderground v.1.15,2013-06-07 21:08:00,
2013-06-07 16:11:00,71.2,48.8,29.89,ESE,104,1.0,2.0,45,0.00,,,0.00,Wunderground v.1.15,2013-06-07 21:11:00,
2013-06-07 16:12:00,71.3,48.3,29.89,ESE,114,0.0,1.0,44,0.00,,,0.00,Wunderground v.1.15,2013-06-07 21:12:00,
2013-06-07 16:16:00,71.1,45.5,29.89,SE,127,0.0,3.0,40,0.00,,,0.00,Wunderground v.1.15,2013-06-07 21:16:00,
2013-06-07 16:18:00,71.4,46.5,29.89,East,100,0.0,3.0,41,0.00,,,0.00,Wunderground v.1.15,2013-06-07 21:18:00,
2013-06-07 16:19:00,71.5,46.6,29.89,East,100,0.0,3.0,41,0.00,,,0.00,Wunderground v.1.15,2013-06-07 21:19:00,
2013-06-07 16:21:00,71.9,50.0,29.89,ESE,102,0.0,0.0,46,0.00,,,0.00,Wunderground v.1.15,2013-06-07 21:21:00,
2013-06-07 16:22:00,71.9,50.0,29.89,ESE,121,2.0,2.0,46,0.00,,,0.00,Wunderground v.1.15,2013-06-07 21:22:00,
2013-06-07 16:23:00,72.0,47.0,29.89,SSE,153,1.0,4.0,41,0.00,,,0.00,Wunderground v.1.15,2013-06-07 21:23:00,
2013-06-07 16:27:00,72.2,49.1,29.89,ESE,114,0.0,6.0,44,0.00,,,0.00,Wunderground v.1.15,2013-06-07 21:27:00,
2013-06-07 16:28:00,72.2,49.1,29.89,ESE,115,0.0,6.0,44,0.00,,,0.00,Wunderground v.1.15,2013-06-07 21:28:00,
2013-06-07 16:30:00,72.1,47.7,29.89,SE,141,6.0,6.0,42,0.00,,,0.00,Wunderground v.1.15,2013-06-07 21:30:00,
2013-06-07 16:33:00,72.1,50.2,29.89,SE,136,0.0,2.0,46,0.00,,,0.00,Wunderground v.1.15,2013-06-07 21:33:00,
2013-06-07 16:34:00,72.1,50.2,29.89,SE,136,0.0,2.0,46,0.00,,,0.00,Wunderground v.1.15,2013-06-07 21:34:00,
2013-06-07 16:38:00,72.4,48.6,29.89,SE,139,0.0,2.0,43,0.00,,,0.00,Wunderground v.1.15,2013-06-07 21:38:00,
2013-06-07 16:39:00,72.5,49.3,29.89,SE,136,1.0,4.0,44,0.00,,,0.00,Wunderground v.1.15,2013-06-07 21:39:00,
2013-06-07 16:41:00,72.5,49.3,29.89,SE,138,0.0,4.0,44,0.00,,,0.00,Wunderground v.1.15,2013-06-07 21:41:00,
2013-06-07 16:42:00,72.5,50.5,29.89,SE,142,4.0,4.0,46,0.00,,,0.00,Wunderground v.1.15,2013-06-07 21:42:00,
2013-06-07 16:43:00,72.6,46.9,29.89,ESE,123,3.0,4.0,40,0.00,,,0.00,Wunderground v.1.15,2013-06-07 21:43:00,
2013-06-07 16:46:00,72.4,46.0,29.89,SSE,155,1.0,4.0,39,0.00,,,0.00,Wunderground v.1.15,2013-06-07 21:46:00,
2013-06-07 16:48:00,72.3,47.3,29.89,SE,131,0.0,4.0,41,0.00,,,0.00,Wunderground v.1.15,2013-06-07 21:48:00,
2013-06-07 16:52:00,72.2,47.2,29.89,SE,138,2.0,6.0,41,0.00,,,0.00,Wunderground v.1.15,2013-06-07 21:52:00,
2013-06-07 16:53:00,72.0,47.0,29.89,ESE,110,0.0,6.0,41,0.00,,,0.00,Wunderground v.1.15,2013-06-07 21:53:00,
2013-06-07 16:54:00,72.0,46.3,29.89,ESE,110,0.0,6.0,40,0.00,,,0.00,Wunderground v.1.15,2013-06-07 21:54:00,
2013-06-07 16:55:00,71.9,48.2,29.89,ESE,109,0.0,6.0,43,0.00,,,0.00,Wunderground v.1.15,2013-06-07 21:55:00,
2013-06-07 16:59:00,71.6,47.3,29.89,SE,124,0.0,6.0,42,0.00,,,0.00,Wunderground v.1.15,2013-06-07 21:59:00,
2013-06-07 17:00:00,71.6,46.6,29.89,SE,124,0.0,6.0,41,0.00,,,0.00,Wunderground v.1.15,2013-06-07 22:00:00,
2013-06-07 17:01:00,71.7,49.2,29.89,SE,124,0.0,1.0,45,0.00,,,0.00,Wunderground v.1.15,2013-06-07 22:01:00,
2013-06-07 18:00:00,71.2,45.6,29.87,SE,135,1.0,6.0,40,0.00,,,-99.99,WeatherLink 5.9.3,2013-06-07 23:00:00,
2013-06-07 18:05:00,72.4,46.7,29.87,SE,138,0.0,1.0,40,0.00,,,0.00,Wunderground v.1.15,2013-06-07 23:05:00,
2013-06-07 18:06:00,72.5,46.8,29.87,SE,138,0.0,1.0,40,0.00,,,0.00,Wunderground v.1.15,2013-06-07 23:06:00,
2013-06-07 18:08:00,72.6,45.5,29.87,SE,138,0.0,1.0,38,0.00,,,0.00,Wunderground v.1.15,2013-06-07 23:08:00,
2013-06-07 18:12:00,72.9,45.8,29.87,SE,138,0.0,0.0,38,0.00,,,0.00,Wunderground v.1.15,2013-06-07 23:12:00,
2013-06-07 18:17:00,72.5,45.4,29.87,SE,138,0.0,0.0,38,0.00,,,0.00,Wunderground v.1.15,2013-06-07 23:17:00,
2013-06-07 18:19:00,72.4,48.6,29.87,SE,138,0.0,0.0,43,0.00,,,0.00,Wunderground v.1.15,2013-06-07 23:19:00,
2013-06-07 18:22:00,72.3,45.9,29.87,SE,138,0.0,0.0,39,0.00,,,0.00,Wunderground v.1.15,2013-06-07 23:22:00,
2013-06-07 18:24:00,72.1,47.7,29.87,SE,137,0.0,0.0,42,0.00,,,0.00,Wunderground v.1.15,2013-06-07 23:24:00,
2013-06-07 18:25:00,72.1,50.2,29.87,SE,137,0.0,0.0,46,0.00,,,0.00,Wunderground v.1.15,2013-06-07 23:25:00,
2013-06-07 18:29:00,71.7,46.1,29.87,SE,135,1.0,1.0,40,0.00,,,0.00,Wunderground v.1.15,2013-06-07 23:29:00,
2013-06-07 18:30:00,71.6,46.6,29.87,SE,135,0.0,1.0,41,0.00,,,0.00,Wunderground v.1.15,2013-06-07 23:30:00,
2013-06-07 18:31:00,71.6,47.3,29.87,SE,134,1.0,1.0,42,0.00,,,0.00,Wunderground v.1.15,2013-06-07 23:31:00,
2013-06-07 18:33:00,71.3,45.7,29.87,SE,134,0.0,0.0,40,0.00,,,0.00,Wunderground v.1.15,2013-06-07 23:33:00,
2013-06-07 18:34:00,71.3,48.9,29.87,SE,134,0.0,0.0,45,0.00,,,0.00,Wunderground v.1.15,2013-06-07 23:34:00,
2013-06-07 18:38:00,71.1,48.1,29.87,SE,134,0.0,0.0,44,0.00,,,0.00,Wunderground v.1.15,2013-06-07 23:38:00,
2013-06-07 18:39:00,71.1,48.1,29.87,SE,134,0.0,0.0,44,0.00,,,0.00,Wunderground v.1.15,2013-06-07 23:39:00,
2013-06-07 18:40:00,71.1,48.1,29.87,SE,134,0.0,0.0,44,0.00,,,0.00,Wunderground v.1.15,2013-06-07 23:40:00,
2013-06-07 18:43:00,70.9,50.2,29.87,SE,134,0.0,1.0,48,0.00,,,0.00,Wunderground v.1.15,2013-06-07 23:43:00,
2013-06-07 18:45:00,70.9,48.5,29.87,SE,134,0.0,1.0,45,0.00,,,0.00,Wunderground v.1.15,2013-06-07 23:45:00,
2013-06-07 18:47:00,70.7,47.7,29.87,SE,134,0.0,1.0,44,0.00,,,0.00,Wunderground v.1.15,2013-06-07 23:47:00,
2013-06-07 18:49:00,70.6,50.5,29.87,SE,134,0.0,1.0,49,0.00,,,0.00,Wunderground v.1.15,2013-06-07 23:49:00,
2013-06-07 18:54:00,70.4,48.0,29.87,SE,134,0.0,0.0,45,0.00,,,0.00,Wunderground v.1.15,2013-06-07 23:54:00,
2013-06-07 18:55:00,70.4,48.0,29.87,SE,134,0.0,0.0,45,0.00,,,0.00,Wunderground v.1.15,2013-06-07 23:55:00,
2013-06-07 18:56:00,70.3,46.7,29.87,SE,134,0.0,0.0,43,0.00,,,0.00,Wunderground v.1.15,2013-06-07 23:56:00,
2013-06-07 18:59:00,70.3,47.3,29.87,SE,134,0.0,0.0,44,0.00,,,0.00,Wunderground v.1.15,2013-06-07 23:59:00,
2013-06-07 19:00:00,70.3,48.5,29.87,SE,134,0.0,0.0,46,0.00,,,0.00,Wunderground v.1.15,2013-06-08 00:00:00,
2013-06-07 19:02:00,70.3,47.3,29.87,SE,134,0.0,0.0,44,0.00,,,0.00,Wunderground v.1.15,2013-06-08 00:02:00,
2013-06-07 19:03:00,70.4,48.0,29.87,SE,134,0.0,0.0,45,0.00,,,0.00,Wunderground v.1.15,2013-06-08 00:03:00,
2013-06-07 19:04:00,70.5,47.5,29.87,SE,134,0.0,0.0,44,0.00,,,0.00,Wunderground v.1.15,2013-06-08 00:04:00,
2013-06-07 19:06:00,70.6,48.2,29.87,SE,134,0.0,0.0,45,0.00,,,0.00,Wunderground v.1.15,2013-06-08 00:06:00,
2013-06-07 19:08:00,70.7,47.1,29.87,SE,134,0.0,0.0,43,0.00,,,0.00,Wunderground v.1.15,2013-06-08 00:08:00,
2013-06-07 19:12:00,70.9,49.1,29.87,SE,134,0.0,0.0,46,0.00,,,0.00,Wunderground v.1.15,2013-06-08 00:12:00,
2013-06-07 19:14:00,70.8,45.9,29.87,SE,134,0.0,0.0,41,0.00,,,0.00,Wunderground v.1.15,2013-06-08 00:14:00,
2013-06-07 19:15:00,70.7,46.5,29.87,SE,134,0.0,0.0,42,0.00,,,0.00,Wunderground v.1.15,2013-06-08 00:15:00,
2013-06-07 19:20:00,70.0,48.3,29.87,SE,134,0.0,1.0,46,0.00,,,0.00,Wunderground v.1.15,2013-06-08 00:20:00,
2013-06-07 19:22:00,69.4,50.5,29.87,SE,134,0.0,1.0,51,0.00,,,0.00,Wunderground v.1.15,2013-06-08 00:22:00,
2013-06-07 19:23:00,69.4,48.9,29.87,SE,134,0.0,1.0,48,0.00,,,0.00,Wunderground v.1.15,2013-06-08 00:23:00,
2013-06-07 19:26:00,68.6,47.6,29.87,SE,141,0.0,3.0,47,0.00,,,0.00,Wunderground v.1.15,2013-06-08 00:26:00,
2013-06-07 19:27:00,68.2,47.8,29.87,SE,141,0.0,3.0,48,0.00,,,0.00,Wunderground v.1.15,2013-06-08 00:27:00,
2013-06-07 19:30:00,67.6,47.2,29.87,SE,141,0.0,3.0,48,0.00,,,0.00,Wunderground v.1.15,2013-06-08 00:30:00,
2013-06-07 19:31:00,67.6,47.2,29.87,SE,141,0.0,3.0,48,0.00,,,0.00,Wunderground v.1.15,2013-06-08 00:31:00,
2013-06-07 19:34:00,67.0,46.1,29.87,SE,141,0.0,1.0,47,0.00,,,0.00,Wunderground v.1.15,2013-06-08 00:34:00,
2013-06-07 19:35:00,66.8,47.6,29.87,SE,141,0.0,1.0,50,0.00,,,0.00,Wunderground v.1.15,2013-06-08 00:35:00,
2013-06-07 19:36:00,66.8,48.1,29.87,SE,141,0.0,1.0,51,0.00,,,0.00,Wunderground v.1.15,2013-06-08 00:36:00,
2013-06-07 19:37:00,66.7,48.0,29.87,SE,141,0.0,1.0,51,0.00,,,0.00,Wunderground v.1.15,2013-06-08 00:37:00,
2013-06-07 19:42:00,66.0,48.4,29.88,SE,141,0.0,0.0,53,0.00,,,0.00,Wunderground v.1.15,2013-06-08 00:42:00,
2013-06-07 19:44:00,65.6,48.0,29.88,SE,141,0.0,0.0,53,0.00,,,0.00,Wunderground v.1.15,2013-06-08 00:44:00,
2013-06-07 19:48:00,65.1,49.5,29.88,SE,141,0.0,0.0,57,0.00,,,0.00,Wunderground v.1.15,2013-06-08 00:48:00,
2013-06-07 19:50:00,64.6,48.5,29.88,SE,141,0.0,0.0,56,0.00,,,0.00,Wunderground v.1.15,2013-06-08 00:50:00,
2013-06-07 19:51:00,64.5,48.0,29.88,SE,141,0.0,0.0,55,0.00,,,0.00,Wunderground v.1.15,2013-06-08 00:51:00,
2013-06-07 19:52:00,64.3,47.3,29.88,SE,141,0.0,0.0,54,0.00,,,0.00,Wunderground v.1.15,2013-06-08 00:52:00,
2013-06-07 19:53:00,64.0,48.0,29.88,SE,141,0.0,0.0,56,0.00,,,0.00,Wunderground v.1.15,2013-06-08 00:53:00,
2013-06-07 19:58:00,63.3,49.6,29.88,SE,141,0.0,0.0,61,0.00,,,0.00,Wunderground v.1.15,2013-06-08 00:58:00,
2013-06-07 19:59:00,63.2,49.5,29.88,SE,141,0.0,0.0,61,0.00,,,0.00,Wunderground v.1.15,2013-06-08 00:59:00,
2013-06-07 20:00:00,67.4,52.1,29.88,SE,135,0.0,3.0,58,0.00,,,-99.99,WeatherLink 5.9.3,2013-06-08 01:00:00,
2013-06-07 20:01:00,62.8,47.8,29.88,SE,141,0.0,0.0,58,0.00,,,0.00,Wunderground v.1.15,2013-06-08 01:01:00,
2013-06-07 20:04:00,62.4,46.5,29.88,SE,141,0.0,0.0,56,0.00,,,0.00,Wunderground v.1.15,2013-06-08 01:04:00,
2013-06-07 21:00:00,59.1,51.2,29.88,SE,135,0.0,1.0,75,0.00,,,-99.99,WeatherLink 5.9.3,2013-06-08 02:00:00,
2013-06-07 21:06:00,56.3,47.0,29.88,SE,141,0.0,0.0,71,0.00,,,0.00,Wunderground v.1.15,2013-06-08 02:06:00,
2013-06-07 21:07:00,56.2,46.9,29.88,SE,141,0.0,0.0,71,0.00,,,0.00,Wunderground v.1.15,2013-06-08 02:07:00,
2013-06-07 21:08:00,56.1,46.4,29.89,SE,141,0.0,0.0,70,0.00,,,0.00,Wunderground v.1.15,2013-06-08 02:08:00,
2013-06-07 21:10:00,55.9,46.3,29.89,SE,141,0.0,0.0,70,0.00,,,0.00,Wunderground v.1.15,2013-06-08 02:10:00,
2013-06-07 21:12:00,55.8,46.5,29.88,SE,141,0.0,0.0,71,0.00,,,0.00,Wunderground v.1.15,2013-06-08 02:12:00,
2013-06-07 21:13:00,55.7,46.4,29.88,SE,141,0.0,0.0,71,0.00,,,0.00,Wunderground v.1.15,2013-06-08 02:13:00,
2013-06-07 21:14:00,55.7,46.4,29.88,SE,141,0.0,0.0,71,0.00,,,0.00,Wunderground v.1.15,2013-06-08 02:14:00,
2013-06-07 21:16:00,55.6,46.3,29.88,SE,141,0.0,0.0,71,0.00,,,0.00,Wunderground v.1.15,2013-06-08 02:16:00,
2013-06-07 21:18:00,55.5,46.6,29.88,SE,141,0.0,0.0,72,0.00,,,0.00,Wunderground v.1.15,2013-06-08 02:18:00,
2013-06-07 21:21:00,55.4,46.9,29.89,SE,141,0.0,0.0,73,0.00,,,0.00,Wunderground v.1.15,2013-06-08 02:21:00,
2013-06-07 21:22:00,55.3,46.8,29.89,SE,141,0.0,0.0,73,0.00,,,0.00,Wunderground v.1.15,2013-06-08 02:22:00,
2013-06-07 21:26:00,55.2,46.7,29.89,SE,141,0.0,0.0,73,0.00,,,0.00,Wunderground v.1.15,2013-06-08 02:26:00,
2013-06-07 21:28:00,55.0,46.5,29.89,SE,141,0.0,0.0,73,0.00,,,0.00,Wunderground v.1.15,2013-06-08 02:28:00,
2013-06-07 21:31:00,54.9,46.8,29.89,SE,141,0.0,0.0,74,0.00,,,0.00,Wunderground v.1.15,2013-06-08 02:31:00,
2013-06-07 21:32:00,54.9,47.1,29.89,SE,141,0.0,0.0,75,0.00,,,0.00,Wunderground v.1.15,2013-06-08 02:32:00,
2013-06-07 21:33:00,54.8,47.0,29.89,SE,141,0.0,0.0,75,0.00,,,0.00,Wunderground v.1.15,2013-06-08 02:33:00,
2013-06-07 21:37:00,54.7,47.3,29.89,SE,141,0.0,0.0,76,0.00,,,0.00,Wunderground v.1.15,2013-06-08 02:37:00,
2013-06-07 21:39:00,54.5,47.4,29.89,SE,141,0.0,0.0,77,0.00,,,0.00,Wunderground v.1.15,2013-06-08 02:39:00,
2013-06-07 21:41:00,54.5,47.4,29.89,SE,141,0.0,0.0,77,0.00,,,0.00,Wunderground v.1.15,2013-06-08 02:41:00,
2013-06-07 21:42:00,54.4,47.3,29.89,SE,141,0.0,0.0,77,0.00,,,0.00,Wunderground v.1.15,2013-06-08 02:42:00,
2013-06-07 21:45:00,54.2,47.5,29.89,SE,141,0.0,0.0,78,0.00,,,0.00,Wunderground v.1.15,2013-06-08 02:45:00,
2013-06-07 21:46:00,54.2,47.8,29.89,SE,141,0.0,0.0,79,0.00,,,0.00,Wunderground v.1.15,2013-06-08 02:46:00,
2013-06-07 21:47:00,54.1,47.7,29.89,SE,141,0.0,0.0,79,0.00,,,0.00,Wunderground v.1.15,2013-06-08 02:47:00,
2013-06-07 21:48:00,54.1,47.7,29.89,SE,141,0.0,0.0,79,0.00,,,0.00,Wunderground v.1.15,2013-06-08 02:48:00,
2013-06-07 21:51:00,53.9,48.2,29.89,SE,141,0.0,0.0,81,0.00,,,0.00,Wunderground v.1.15,2013-06-08 02:51:00,
2013-06-07 21:52:00,53.9,48.2,29.89,SE,141,0.0,0.0,81,0.00,,,0.00,Wunderground v.1.15,2013-06-08 02:52:00,
2013-06-07 21:54:00,53.8,48.4,29.89,SE,141,0.0,0.0,82,0.00,,,0.00,Wunderground v.1.15,2013-06-08 02:54:00,
2013-06-07 21:58:00,53.8,48.8,29.89,SE,141,0.0,0.0,83,0.00,,,0.00,Wunderground v.1.15,2013-06-08 02:58:00,
2013-06-07 22:00:00,53.7,49.0,29.89,SE,141,0.0,0.0,84,0.00,,,0.00,Wunderground v.1.15,2013-06-08 03:00:00,
2013-06-07 22:01:00,53.7,49.0,29.89,SE,141,0.0,0.0,84,0.00,,,0.00,Wunderground v.1.15,2013-06-08 03:01:00,
2013-06-07 22:03:00,53.7,49.0,29.89,SE,141,0.0,0.0,84,0.00,,,0.00,Wunderground v.1.15,2013-06-08 03:03:00,
2013-06-07 22:08:00,53.6,49.2,29.89,SE,141,0.0,0.0,85,0.00,,,0.00,Wunderground v.1.15,2013-06-08 03:08:00,
2013-06-07 22:09:00,53.5,49.4,29.89,SE,141,0.0,0.0,86,0.00,,,0.00,Wunderground v.1.15,2013-06-08 03:09:00,
2013-06-07 22:12:00,53.6,49.5,29.89,SE,141,0.0,0.0,86,0.00,,,0.00,Wunderground v.1.15,2013-06-08 03:12:00,
2013-06-07 22:13:00,53.6,49.8,29.89,SE,141,0.0,0.0,87,0.00,,,0.00,Wunderground v.1.15,2013-06-08 03:13:00,
2013-06-07 22:15:00,53.6,50.1,29.89,SE,141,0.0,0.0,88,0.00,,,0.00,Wunderground v.1.15,2013-06-08 03:15:00,
2013-06-07 22:17:00,53.6,50.1,29.89,SE,141,0.0,0.0,88,0.00,,,0.00,Wunderground v.1.15,2013-06-08 03:17:00,
2013-06-07 22:19:00,53.6,50.1,29.89,SE,141,0.0,0.0,88,0.00,,,0.00,Wunderground v.1.15,2013-06-08 03:19:00,
2013-06-07 22:23:00,53.5,50.0,29.89,SE,141,0.0,0.0,88,0.00,,,0.00,Wunderground v.1.15,2013-06-08 03:23:00,
2013-06-07 22:25:00,53.4,49.9,29.89,SE,141,0.0,0.0,88,0.00,,,0.00,Wunderground v.1.15,2013-06-08 03:25:00,
2013-06-07 22:29:00,53.4,49.9,29.89,SE,141,0.0,0.0,88,0.00,,,0.00,Wunderground v.1.15,2013-06-08 03:29:00,
2013-06-07 22:30:00,53.3,50.1,29.89,SE,141,0.0,0.0,89,0.00,,,0.00,Wunderground v.1.15,2013-06-08 03:30:00,
2013-06-07 22:31:00,53.3,50.1,29.89,SE,141,0.0,0.0,89,0.00,,,0.00,Wunderground v.1.15,2013-06-08 03:31:00,
2013-06-07 22:35:00,53.3,50.1,29.89,SE,141,0.0,0.0,89,0.00,,,0.00,Wunderground v.1.15,2013-06-08 03:35:00,
2013-06-07 22:36:00,53.3,50.1,29.89,SE,141,0.0,0.0,89,0.00,,,0.00,Wunderground v.1.15,2013-06-08 03:36:00,
2013-06-07 22:38:00,53.2,50.0,29.89,SE,141,0.0,0.0,89,0.00,,,0.00,Wunderground v.1.15,2013-06-08 03:38:00,
2013-06-07 22:43:00,53.2,50.0,29.89,SE,141,0.0,0.0,89,0.00,,,0.00,Wunderground v.1.15,2013-06-08 03:43:00,
2013-06-07 22:44:00,53.2,50.0,29.89,SE,141,0.0,0.0,89,0.00,,,0.00,Wunderground v.1.15,2013-06-08 03:44:00,
2013-06-07 22:47:00,53.2,50.3,29.89,SE,141,0.0,0.0,90,0.00,,,0.00,Wunderground v.1.15,2013-06-08 03:47:00,
2013-06-07 22:49:00,53.2,50.3,29.89,SE,141,0.0,0.0,90,0.00,,,0.00,Wunderground v.1.15,2013-06-08 03:49:00,
2013-06-07 22:50:00,53.2,50.3,29.89,SE,141,0.0,0.0,90,0.00,,,0.00,Wunderground v.1.15,2013-06-08 03:50:00,
2013-06-07 22:53:00,53.1,49.9,29.89,SE,141,0.0,0.0,89,0.00,,,0.00,Wunderground v.1.15,2013-06-08 03:53:00,
2013-06-07 22:54:00,53.1,49.9,29.89,SE,141,0.0,0.0,89,0.00,,,0.00,Wunderground v.1.15,2013-06-08 03:54:00,
2013-06-07 22:56:00,53.1,50.2,29.89,SE,141,0.0,0.0,90,0.00,,,0.00,Wunderground v.1.15,2013-06-08 03:56:00,
2013-06-07 23:00:00,53.3,50.4,29.89,SE,135,0.0,1.0,90,0.00,,,-99.99,WeatherLink 5.9.3,2013-06-08 04:00:00,
2013-06-07 23:01:00,53.1,50.2,29.89,SE,141,0.0,0.0,90,0.00,,,0.00,Wunderground v.1.15,2013-06-08 04:01:00,
2013-06-07 23:04:00,53.1,50.2,29.88,SE,141,0.0,0.0,90,0.00,,,0.00,Wunderground v.1.15,2013-06-08 04:04:00,
2013-06-07 23:07:00,53.1,50.2,29.88,SE,141,0.0,0.0,90,0.00,,,0.00,Wunderground v.1.15,2013-06-08 04:07:00,
2013-06-07 23:09:00,53.1,50.2,29.88,SE,141,0.0,0.0,90,0.00,,,0.00,Wunderground v.1.15,2013-06-08 04:09:00,
2013-06-07 23:11:00,53.2,50.3,29.88,SE,141,0.0,0.0,90,0.00,,,0.00,Wunderground v.1.15,2013-06-08 04:11:00,
2013-06-07 23:13:00,53.2,50.6,29.88,SE,141,0.0,0.0,91,0.00,,,0.00,Wunderground v.1.15,2013-06-08 04:13:00,
2013-06-07 23:14:00,53.2,50.6,29.88,SE,141,0.0,0.0,91,0.00,,,0.00,Wunderground v.1.15,2013-06-08 04:14:00,
2013-06-07 23:15:00,53.2,50.6,29.88,SE,141,0.0,0.0,91,0.00,,,0.00,Wunderground v.1.15,2013-06-08 04:15:00,
2013-06-07 23:16:00,53.3,50.7,29.88,SE,141,0.0,0.0,91,0.00,,,0.00,Wunderground v.1.15,2013-06-08 04:16:00,
2013-06-07 23:19:00,53.4,51.1,29.88,SE,141,0.0,0.0,92,0.00,,,0.00,Wunderground v.1.15,2013-06-08 04:19:00,
2013-06-07 23:20:00,53.4,50.8,29.88,SE,141,0.0,0.0,91,0.00,,,0.00,Wunderground v.1.15,2013-06-08 04:20:00,
2013-06-07 23:21:00,53.4,50.8,29.88,SE,141,0.0,0.0,91,0.00,,,0.00,Wunderground v.1.15,2013-06-08 04:21:00,
2013-06-07 23:25:00,53.5,50.6,29.88,SE,141,0.0,0.0,90,0.00,,,0.00,Wunderground v.1.15,2013-06-08 04:25:00,
2013-06-07 23:26:00,53.5,50.6,29.88,SE,141,0.0,0.0,90,0.00,,,0.00,Wunderground v.1.15,2013-06-08 04:26:00,
2013-06-07 23:27:00,53.5,50.6,29.88,SE,141,0.0,0.0,90,0.00,,,0.00,Wunderground v.1.15,2013-06-08 04:27:00,
2013-06-07 23:29:00,53.5,50.6,29.88,SE,141,0.0,0.0,90,0.00,,,0.00,Wunderground v.1.15,2013-06-08 04:29:00,
2013-06-07 23:30:00,53.6,50.7,29.88,SE,141,0.0,0.0,90,0.00,,,0.00,Wunderground v.1.15,2013-06-08 04:30:00,
2013-06-07 23:32:00,53.6,50.7,29.88,SE,141,0.0,0.0,90,0.00,,,0.00,Wunderground v.1.15,2013-06-08 04:32:00,
2013-06-07 23:33:00,53.6,50.7,29.88,SE,141,0.0,0.0,90,0.00,,,0.00,Wunderground v.1.15,2013-06-08 04:33:00,
2013-06-07 23:34:00,53.6,50.7,29.88,SE,141,0.0,0.0,90,0.00,,,0.00,Wunderground v.1.15,2013-06-08 04:34:00,
2013-06-07 23:36:00,53.7,50.5,29.88,SE,141,1.0,1.0,89,0.00,,,0.00,Wunderground v.1.15,2013-06-08 04:36:00,
2013-06-07 23:38:00,53.8,50.6,29.88,SE,141,0.0,1.0,89,0.00,,,0.00,Wunderground v.1.15,2013-06-08 04:38:00,
2013-06-07 23:39:00,53.9,50.7,29.88,SE,141,0.0,1.0,89,0.00,,,0.00,Wunderground v.1.15,2013-06-08 04:39:00,
2013-06-07 23:41:00,54.0,50.8,29.88,SE,142,0.0,1.0,89,0.00,,,0.00,Wunderground v.1.15,2013-06-08 04:41:00,
2013-06-07 23:42:00,54.0,50.8,29.88,SE,142,0.0,0.0,89,0.00,,,0.00,Wunderground v.1.15,2013-06-08 04:42:00,
2013-06-07 23:44:00,54.1,50.9,29.88,SE,142,0.0,0.0,89,0.00,,,0.00,Wunderground v.1.15,2013-06-08 04:44:00,
2013-06-07 23:47:00,54.3,51.1,29.88,SE,142,0.0,0.0,89,0.00,,,0.00,Wunderground v.1.15,2013-06-08 04:47:00,
2013-06-07 23:48:00,54.3,51.1,29.88,SE,142,0.0,0.0,89,0.00,,,0.00,Wunderground v.1.15,2013-06-08 04:48:00,
2013-06-07 23:49:00,54.3,51.1,29.88,SE,142,0.0,1.0,89,0.00,,,0.00,Wunderground v.1.15,2013-06-08 04:49:00,
2013-06-07 23:50:00,54.3,51.1,29.88,SE,142,0.0,1.0,89,0.00,,,0.00,Wunderground v.1.15,2013-06-08 04:50:00,
2013-06-07 23:53:00,54.4,51.2,29.88,SE,142,0.0,1.0,89,0.00,,,0.00,Wunderground v.1.15,2013-06-08 04:53:00,
2013-06-07 23:55:00,54.4,51.2,29.88,SE,142,0.0,1.0,89,0.00,,,0.00,Wunderground v.1.15,2013-06-08 04:55:00,
2013-06-07 23:56:00,54.4,51.5,29.88,SE,142,0.0,1.0,90,0.00,,,0.00,Wunderground v.1.15,2013-06-08 04:56:00,
2013-06-07 23:58:00,54.4,51.5,29.88,SE,142,0.0,1.0,90,0.00,,,0.00,Wunderground v.1.15,2013-06-08 04:58:00,